GFSSE_925_temp_096.txt.gz
Temp
20 20 21 21 21 22 22 23 23 22 22 22 22 21 22 21 21 21 20 20 19 18 18 19 19 19 18 18 18 18 18 18 17 17 17 17 17 16 16 17 17 16 16
23 21 21 21 22 22 22 22 22 22 21 21 21 21 21 21 20 20 19 19 18 18 18 18 18 18 17 17 18 17 17 17 17 17 17 17 16 16 16 16 16 16 16
22 22 21 21 21 21 22 22 22 22 21 21 21 20 20 20 19 19 19 19 18 18 17 17 18 18 17 17 17 17 17 17 17 17 17 16 16 16 15 16 16 16 15
22 22 22 21 21 21 20 22 22 22 21 20 19 19 19 19 19 19 19 19 18 18 17 17 18 17 16 17 17 17 17 17 16 16 16 16 16 15 15 15 15 16 16
22 21 21 21 21 21 21 20 19 19 18 18 18 18 18 18 18 18 18 18 18 18 17 18 17 16 17 17 17 17 17 17 16 16 17 16 16 15 14 14 14 14 14
21 21 21 21 21 21 20 20 19 19 19 18 18 18 17 18 17 17 18 18 18 17 18 18 17 17 17 17 17 17 16 16 16 16 16 15 15 14 14 14 14 14 14
21 20 21 20 20 20 19 19 19 19 18 18 17 18 18 18 18 18 17 17 17 18 18 17 16 17 17 17 16 16 16 16 16 16 15 15 14 14 14 14 13 13 13
21 20 20 19 19 19 19 19 18 18 18 17 17 18 18 18 18 19 18 16 17 17 17 17 16 16 16 16 16 16 16 16 15 15 15 15 14 14 13 13 13 13 13
20 19 19 19 18 18 18 18 18 18 18 17 18 18 18 17 18 20 18 16 16 17 17 16 16 16 16 17 16 16 15 15 15 15 15 14 14 13 13 13 13 12 12
19 19 19 18 18 17 17 18 18 18 18 17 17 17 17 17 17 17 16 17 16 17 17 16 17 16 17 16 16 16 15 15 15 14 14 14 14 13 13 13 12 12 12
19 19 18 18 18 18 18 18 18 18 17 17 17 17 17 17 16 14 15 16 16 17 16 17 16 16 16 16 16 16 16 15 14 14 14 14 13 13 13 13 12 12 12
19 18 18 18 18 18 18 18 17 17 16 17 17 16 17 16 16 15 15 16 16 17 16 16 16 16 16 16 15 15 16 14 14 14 13 13 14 13 13 12 12 12 12
19 18 18 18 18 18 18 17 17 16 16 16 16 16 16 15 15 14 15 15 15 16 16 16 16 16 16 15 15 16 15 14 14 13 13 13 13 13 12 12 12 12 11
18 18 18 18 18 17 17 17 18 17 16 16 15 15 15 15 15 15 15 14 15 15 16 16 16 16 16 16 16 16 15 14 14 13 13 13 13 13 12 12 12 11 11
18 17 17 17 17 17 17 17 17 17 16 16 15 15 15 15 14 14 14 14 14 15 16 16 16 16 16 15 16 16 15 14 14 13 13 13 13 13 12 12 12 11 11
18 17 17 17 17 16 17 16 16 16 16 16 15 15 15 15 14 14 14 13 14 15 16 15 16 16 16 15 15 15 15 14 14 13 13 13 13 12 12 12 12 11 11
17 17 16 16 15 14 16 16 16 16 15 15 15 15 14 14 14 14 14 15 14 15 16 15 16 16 16 16 15 15 15 14 14 13 13 13 12 12 12 12 12 11 11
17 16 16 15 15 15 14 14 15 15 15 15 15 15 14 14 14 14 14 14 14 15 15 15 16 16 16 15 15 14 14 14 14 13 13 13 12 12 12 12 11 11 11
17 16 15 15 15 15 15 15 14 14 14 14 14 14 14 14 14 14 13 13 15 15 15 15 16 16 16 15 15 15 15 15 14 13 13 13 13 12 12 11 11 11 11
16 16 15 15 15 15 15 14 14 14 14 14 14 14 14 14 14 14 13 14 15 15 14 15 16 16 16 16 15 15 15 14 14 14 14 13 13 13 12 12 12 12 12
14 15 15 14 14 14 14 13 12 13 13 14 14 14 14 14 14 13 14 14 14 14 15 15 16 16 16 16 15 13 14 14 14 14 14 14 13 13 13 13 13 13 12
13 13 14 14 14 14 14 14 12 12 12 13 13 14 14 14 13 13 13 13 14 14 15 15 15 15 15 16 15 15 12 12 12 14 15 14 14 14 14 13 13 13 13
13 13 13 14 14 14 12 13 12 11 11 11 12 13 13 14 14 13 13 13 14 14 15 15 15 16 15 16 16 15 11 12 13 13 14 14 14 14 14 14 14 14 14
12 13 14 13 13 12 12 12 12 11 10 10 11 11 12 13 13 13 12 12 13 14 14 16 16 16 15 15 16 16 16 15 12 12 14 14 14 14 14 14 14 14 14
12 12 13 13 12 12 12 13 11 11 11 10 10 10 11 11 12 12 12 13 14 15 16 16 16 17 16 15 16 15 15 15 15 13 12 13 14 15 15 15 15 15 15
12 12 13 12 12 12 12 12 11 11 10 10 10 10 10 10 10 10 10 12 14 15 15 16 16 16 16 16 16 16 16 15 14 13 12 12 14 15 16 15 15 15 15

GFSSE_925_temp_102.txt.gz
Temp
22 21 21 19 18 20 21 21 22 23 22 22 22 22 22 21 21 20 20 19 19 19 19 18 19 19 18 18 18 18 18 18 18 18 17 17 17 17 16 17 17 17 17
24 22 22 21 20 20 21 21 21 22 22 22 22 22 22 21 21 20 20 19 19 19 18 18 19 19 18 18 18 18 17 18 17 17 17 18 17 16 16 17 17 17 17
23 22 22 21 21 21 21 21 21 21 22 21 21 21 21 21 21 20 20 20 19 19 18 18 19 18 17 18 18 18 17 17 17 17 17 17 17 16 16 16 16 16 16
24 22 21 21 21 22 21 21 21 21 21 21 21 21 20 20 20 19 19 19 19 19 18 18 18 17 18 18 18 17 17 17 17 17 17 17 16 16 16 16 16 16 16
23 22 21 21 21 22 22 21 21 20 20 21 21 21 20 19 19 19 19 19 18 18 18 18 17 17 17 17 17 17 17 17 17 17 16 16 16 16 16 15 15 15 15
23 23 22 20 20 19 20 21 20 20 20 20 20 20 19 19 18 19 19 19 18 18 18 17 17 18 17 17 17 17 17 17 17 16 16 16 16 15 15 15 15 15 15
22 22 21 19 19 19 18 18 19 20 20 20 20 19 19 18 18 19 18 19 19 18 18 17 17 17 16 16 17 16 16 17 16 15 15 16 15 15 15 15 15 15 15
23 22 20 20 19 19 18 18 18 18 18 19 19 19 18 18 19 19 18 18 18 18 19 18 17 17 16 17 16 16 16 16 16 16 15 15 15 15 14 14 14 14 14
22 21 20 20 19 19 18 18 18 18 18 18 18 18 18 18 18 18 18 18 18 18 19 18 17 16 16 16 16 16 16 16 16 15 15 14 14 14 14 13 13 13 13
20 20 19 19 19 18 18 18 18 18 18 18 18 18 18 18 18 18 17 17 17 16 17 17 16 16 16 16 16 16 16 16 15 15 15 14 14 14 13 13 13 13 13
19 19 19 19 19 18 18 19 18 18 18 18 18 18 18 18 17 17 17 17 17 17 17 17 16 16 16 16 16 15 15 15 15 14 14 14 14 14 13 13 13 12 12
18 18 19 19 18 18 18 18 18 17 18 17 17 17 17 17 17 17 16 17 17 17 17 17 16 16 16 15 15 15 15 15 15 14 14 14 14 14 13 13 12 12 12
17 17 18 18 18 18 17 17 17 17 18 17 17 17 17 17 17 16 16 16 16 16 17 16 15 15 16 15 15 15 15 15 15 14 14 14 14 13 13 13 13 12 12
18 19 18 18 18 17 17 17 17 17 18 17 17 17 16 16 16 16 16 16 15 16 16 16 14 15 16 15 15 15 15 15 14 14 14 14 14 13 13 13 12 12 12
18 19 19 18 17 17 17 17 17 17 18 18 17 17 16 16 16 15 15 14 14 14 15 15 14 15 15 15 14 15 14 14 14 14 14 14 13 13 13 13 12 12 12
19 19 19 18 18 17 17 17 17 17 17 17 17 17 16 16 15 15 14 14 14 14 14 15 14 15 15 14 14 14 14 14 14 13 13 13 13 13 13 13 12 12 12
19 20 19 18 18 17 17 16 16 16 15 14 15 16 15 15 15 15 14 14 13 14 14 14 14 15 15 14 14 14 14 14 13 13 13 13 13 13 13 13 12 12 12
18 19 19 18 18 17 17 16 16 15 15 15 14 14 14 15 15 14 14 14 13 13 14 14 14 13 13 14 14 13 14 13 13 13 13 13 13 13 13 12 12 12 11
20 18 18 18 18 17 17 16 15 15 15 15 14 14 15 14 14 14 14 14 13 13 13 12 13 14 13 13 13 14 13 14 13 13 13 13 12 12 12 12 12 12 11
19 17 18 16 17 17 16 15 15 15 14 15 15 15 14 14 14 14 14 13 13 12 12 12 12 13 14 13 12 12 13 12 12 13 13 12 12 12 12 12 12 11 11
17 15 16 15 16 16 14 14 14 14 14 15 15 15 15 14 14 14 13 12 11 11 12 12 12 13 12 12 11 10 10 11 12 12 12 12 12 12 12 12 12 12 12
14 14 13 14 15 15 13 13 13 13 13 14 16 15 14 14 14 14 13 12 13 12 12 12 12 11 11 12 12 11 10 11 11 12 12 12 12 13 12 12 12 12 12
13 13 13 13 14 13 13 13 12 12 12 13 13 14 14 14 13 13 13 12 12 12 12 12 12 13 12 12 12 13 10 11 11 11 11 12 12 12 12 12 12 13 13
13 13 13 13 13 12 13 12 12 12 12 12 12 13 13 14 13 13 13 12 11 12 11 12 13 13 12 12 13 15 15 14 11 10 11 12 12 12 12 12 13 13 14
14 13 12 13 12 13 13 12 12 11 12 11 11 12 13 13 13 13 13 12 12 11 11 12 12 13 13 13 14 14 14 14 14 12 11 10 11 12 13 14 13 14 14
13 12 13 12 12 12 12 12 11 11 11 11 11 11 12 13 13 13 12 12 12 11 12 13 13 13 13 14 14 15 16 14 13 13 11 11 12 13 14 14 14 14 15

GFSSE_925_temp_105.txt.gz
Temp
21 22 21 18 18 20 21 22 22 22 21 21 22 22 22 21 21 21 20 19 19 19 19 18 19 18 18 18 19 19 18 18 18 18 18 17 17 17 17 17 18 17 17
24 22 22 19 20 21 21 22 23 22 21 22 22 22 22 21 21 20 19 19 19 19 18 19 19 19 18 19 19 18 18 18 18 18 18 17 17 17 17 17 17 17 17
25 23 21 19 19 21 21 22 22 22 22 22 22 22 21 21 20 19 19 19 19 19 18 18 18 18 18 19 18 18 18 18 17 17 18 17 17 16 16 17 17 17 17
24 23 21 20 20 21 21 21 22 22 22 22 22 21 21 20 20 20 20 19 19 19 19 18 18 18 18 18 18 18 18 17 17 17 18 17 17 16 16 16 16 16 16
23 23 22 22 20 21 21 21 22 22 22 22 21 21 21 21 20 20 20 19 19 19 19 18 18 18 18 18 18 18 17 17 17 17 17 17 17 16 16 16 16 16 16
23 23 22 22 20 21 20 20 21 21 22 22 21 20 20 20 20 20 19 19 20 20 19 18 18 18 18 18 18 17 17 17 17 17 17 17 17 16 15 16 16 16 16
23 23 22 21 18 18 20 20 20 20 20 21 19 20 19 19 19 20 19 19 19 19 19 18 18 17 17 18 18 17 17 17 17 17 17 17 16 15 15 15 15 15 15
23 22 21 20 19 18 18 20 20 20 20 19 18 19 18 19 19 19 19 18 18 19 18 18 18 17 18 18 17 17 17 17 16 17 17 17 15 15 15 15 15 15 15
23 21 20 19 19 19 18 18 18 19 19 19 19 20 20 19 20 19 19 19 18 19 19 18 17 17 18 17 17 17 16 16 16 16 16 16 15 15 14 14 15 14 14
21 21 20 19 19 18 18 18 18 17 18 19 19 19 19 19 19 19 18 18 18 18 18 18 17 17 17 16 16 16 16 16 16 16 16 16 15 14 14 14 13 13 13
20 20 20 19 18 18 18 18 18 17 18 18 18 18 18 18 18 18 18 18 18 18 17 17 16 18 17 16 16 16 16 15 15 15 16 15 14 14 14 13 13 13 13
18 19 19 19 18 18 18 18 19 18 18 18 18 18 18 18 18 19 18 18 18 18 17 16 17 17 16 15 14 16 15 15 15 15 15 14 14 14 14 13 13 13 13
18 17 19 18 18 18 18 18 19 18 18 18 17 17 18 18 17 17 17 17 17 17 16 16 15 16 15 15 14 14 14 14 15 15 15 14 14 14 13 13 13 13 13
18 17 18 18 18 18 18 18 18 18 17 17 17 17 17 17 16 17 16 16 16 16 15 15 14 14 16 15 16 14 14 15 15 15 14 14 14 13 13 13 13 12 13
18 17 18 18 18 18 17 17 17 17 17 16 17 18 17 16 16 16 16 15 14 14 15 15 14 14 14 14 15 15 14 14 14 15 15 14 14 13 13 13 13 12 12
19 18 17 18 18 18 17 16 16 16 16 17 16 17 17 17 17 16 16 14 14 15 14 15 14 14 14 14 15 14 14 14 14 14 14 14 14 14 13 13 12 12 12
19 19 18 19 18 18 16 16 16 16 16 16 16 16 16 17 17 17 15 14 14 14 14 14 13 13 14 13 13 13 13 13 13 13 14 14 13 13 13 13 13 12 12
20 19 18 17 18 17 16 16 16 16 15 15 15 15 15 16 16 14 14 14 14 14 12 13 12 13 12 13 13 13 14 13 13 13 13 13 13 13 13 13 12 12 12
21 19 17 16 17 16 15 16 15 16 15 15 14 14 14 14 13 13 14 14 14 13 12 12 12 13 12 12 13 13 13 13 13 13 13 13 13 13 13 13 13 13 12
21 19 17 16 16 15 15 15 15 15 15 15 14 14 14 14 14 13 13 14 13 13 12 12 12 12 12 12 13 13 13 13 13 13 13 13 13 13 13 13 12 12 12
20 17 16 15 15 14 14 15 14 14 14 14 14 14 14 14 14 14 13 14 13 13 12 11 11 12 11 12 12 11 11 12 12 12 13 13 13 12 12 12 12 12 11
18 16 15 15 14 14 14 14 14 14 14 14 14 14 14 14 14 14 14 13 13 12 12 12 11 11 11 11 13 13 11 11 12 12 12 12 12 12 12 12 12 12 12
16 15 15 15 13 14 14 14 13 13 13 13 13 13 14 14 14 14 14 12 12 11 11 11 11 12 11 11 13 15 13 13 13 12 12 12 12 12 12 12 11 11 11
16 15 14 14 13 14 13 13 13 14 14 13 13 14 14 14 14 13 13 12 11 11 11 11 11 12 12 11 12 13 14 13 15 13 12 12 12 11 12 12 12 11 11
16 15 14 13 13 13 13 13 13 13 13 12 12 13 13 13 14 13 13 12 11 11 12 12 12 12 13 12 12 12 14 13 14 15 16 13 12 12 12 11 12 11 12
15 15 14 12 13 12 13 12 12 12 13 13 12 11 12 13 13 13 13 12 12 11 11 11 11 11 12 12 13 14 13 14 13 14 15 14 13 11 12 12 12 12 13

GFSSE_925_temp_108.txt.gz
Temp
26 24 24 23 23 21 22 22 23 23 22 21 22 22 21 21 20 20 20 20 19 19 19 19 19 19 18 19 19 19 19 19 18 18 18 18 17 17 18 18 19 18 18
26 23 23 21 22 21 21 22 23 23 22 21 21 22 21 21 20 19 20 20 20 19 19 19 19 19 18 19 19 19 19 18 18 18 18 18 17 17 18 18 18 17 17
25 23 21 20 21 20 21 22 22 22 22 21 21 21 20 20 20 20 20 19 19 19 19 18 19 19 19 19 19 19 18 18 18 18 19 20 18 17 18 18 17 17 17
24 22 21 22 22 21 21 22 22 22 22 21 21 21 21 20 20 19 19 19 19 19 19 18 18 18 18 19 19 18 18 18 18 19 20 19 18 17 17 17 17 17 17
24 23 21 23 22 21 21 22 22 22 22 21 21 21 20 20 20 19 19 19 19 19 19 18 18 18 18 18 18 18 18 18 19 20 20 18 19 17 16 17 17 17 17
24 23 21 23 22 21 21 21 22 22 22 21 21 21 21 20 19 20 20 19 19 19 19 19 19 18 18 18 18 18 18 18 19 22 19 18 19 16 16 16 16 16 16
23 22 20 22 22 20 20 21 21 21 21 21 21 20 20 20 20 20 19 20 20 20 20 20 19 18 18 18 18 18 18 18 21 21 19 18 17 16 15 16 16 16 15
22 20 19 20 20 20 20 20 20 21 21 21 20 20 20 20 20 20 20 20 20 19 19 18 18 18 18 18 18 18 18 18 19 20 18 18 16 16 15 15 15 15 15
22 20 20 19 18 19 19 19 20 20 20 20 19 19 20 20 20 20 19 19 19 19 19 18 18 18 17 18 18 17 17 18 19 18 18 16 16 15 15 15 15 15 15
22 21 20 20 19 18 18 18 19 19 19 19 19 19 20 20 20 20 19 19 19 19 18 18 19 18 18 17 17 17 17 18 20 18 18 16 15 15 14 14 15 15 15
22 22 21 20 19 19 19 18 18 18 18 18 18 18 19 19 19 19 19 18 19 19 18 18 18 18 18 18 17 16 17 18 19 19 17 16 15 15 14 14 14 14 14
23 22 22 21 20 19 20 20 18 18 18 18 18 18 18 19 19 20 18 18 18 18 18 17 17 17 17 15 17 16 17 18 18 18 16 15 15 14 14 13 13 13 13
24 23 22 21 20 20 20 21 19 18 19 18 19 19 19 18 18 18 18 18 18 17 17 16 15 15 15 16 15 15 16 17 18 18 15 15 14 14 14 13 13 13 13
26 24 22 20 20 20 21 20 21 17 18 17 17 18 17 17 17 17 17 19 18 18 17 16 15 15 14 16 15 16 16 18 18 17 14 14 14 14 14 13 13 13 13
26 24 23 18 19 19 19 21 21 20 17 17 17 17 17 17 17 16 16 16 17 17 17 16 15 14 14 14 15 15 16 18 18 18 15 14 14 14 13 13 13 13 13
26 25 23 19 18 20 19 17 19 19 19 17 17 17 17 17 17 17 16 16 17 16 16 15 15 14 14 14 15 15 16 17 17 18 16 14 14 14 13 13 13 13 12
26 25 23 21 19 20 20 17 18 18 17 17 16 17 17 16 16 16 16 16 16 15 15 15 14 14 14 14 15 16 16 17 17 17 16 15 14 14 14 13 13 12 12
26 26 24 22 20 20 20 19 17 16 16 15 16 16 16 16 16 16 16 15 15 15 14 14 13 13 13 13 14 16 16 16 16 16 15 15 15 15 14 13 13 12 13
27 26 25 23 20 20 19 19 16 15 16 16 16 15 15 16 15 15 15 14 14 14 14 14 13 13 13 13 14 16 16 16 16 16 17 16 15 15 14 13 13 13 13
26 26 24 23 21 20 19 17 16 15 15 16 16 16 15 15 15 15 15 14 14 14 13 12 12 12 12 12 13 15 16 16 16 16 16 15 15 14 13 13 13 13 13
24 23 23 23 21 19 17 16 15 15 15 15 15 15 16 15 15 14 14 14 14 13 12 12 12 11 12 12 13 14 15 15 15 14 15 16 15 14 14 14 15 15 13
23 23 22 21 20 19 16 15 16 15 15 15 15 15 15 15 14 14 14 14 13 12 12 12 12 12 12 12 13 12 13 13 14 14 16 16 15 14 15 15 14 14 14
22 22 21 21 20 19 18 15 16 15 15 14 14 14 14 14 14 14 14 14 13 13 12 11 12 12 12 12 13 15 13 14 14 14 15 16 14 15 15 14 14 15 14
22 21 21 20 20 19 18 15 16 16 15 16 15 14 14 14 14 14 14 13 13 13 12 11 11 11 12 12 12 13 16 16 17 14 14 15 15 14 15 15 15 14 14
22 20 19 19 19 17 18 15 16 18 18 18 17 16 13 14 14 14 14 13 13 12 12 11 11 11 11 12 12 12 14 15 16 17 16 16 15 15 15 14 15 15 14
22 21 19 18 18 16 15 15 16 19 19 17 16 14 13 13 13 13 13 13 12 12 11 11 11 11 11 11 12 12 14 15 15 16 17 16 16 16 15 15 15 15 15

GFSSE_925_temp_111.txt.gz
Temp
30 24 25 24 23 22 22 22 22 23 22 22 22 22 21 21 21 20 20 20 20 20 20 20 19 19 20 20 20 20 20 20 20 19 19 18 18 19 19 19 19 18 18
29 23 25 24 23 23 22 22 23 23 22 21 21 22 21 21 21 20 20 20 20 20 20 20 19 19 18 19 19 19 19 19 19 19 18 18 18 18 18 19 19 17 18
28 23 23 24 23 22 22 22 23 22 22 21 21 21 21 21 20 20 20 20 20 20 19 19 19 19 18 19 19 19 19 19 19 19 20 20 18 18 18 19 18 18 17
27 23 22 25 23 22 22 23 22 22 21 20 21 21 21 21 20 20 20 20 20 20 19 19 19 19 19 19 19 19 19 19 20 20 20 19 19 17 18 18 17 17 17
27 25 23 24 23 22 22 22 22 22 21 20 21 21 21 21 20 20 20 20 20 20 19 19 19 19 19 19 19 19 19 19 21 20 20 20 19 17 17 17 17 17 17
27 26 24 24 22 22 22 22 21 21 21 21 21 21 21 21 20 20 20 20 20 20 20 19 19 19 19 19 19 19 19 20 21 21 21 19 19 17 17 17 17 17 17
27 26 23 24 23 21 21 22 21 21 20 20 20 20 20 20 20 20 20 20 20 20 20 20 20 19 19 18 19 19 19 21 20 21 20 19 17 16 16 16 16 16 16
26 25 21 22 22 21 21 21 21 21 20 20 20 19 20 20 20 20 20 20 19 19 19 19 19 19 18 18 18 19 19 20 20 20 19 17 16 16 16 16 16 16 16
25 23 21 19 21 21 21 20 20 20 20 20 19 19 20 20 20 20 20 20 20 19 19 19 19 19 18 18 18 19 19 20 21 19 18 17 16 16 15 15 15 15 15
24 23 22 21 20 19 19 20 20 20 20 20 19 19 20 20 20 20 20 20 19 19 19 19 19 18 18 17 18 19 19 19 19 18 19 17 16 16 15 14 15 15 15
25 24 23 22 21 21 21 19 19 19 19 19 19 18 19 20 20 19 19 19 19 19 19 19 18 18 18 18 18 18 18 20 18 18 18 16 16 15 15 14 14 14 15
26 25 25 23 23 22 21 20 19 19 19 18 19 19 19 20 20 20 20 19 19 19 18 18 18 18 18 17 18 17 18 18 19 18 17 16 16 15 14 14 14 14 14
28 27 26 24 23 22 23 23 22 20 20 19 19 19 20 20 20 20 19 18 18 18 18 17 17 16 16 16 17 17 16 17 16 17 16 16 15 15 14 14 13 13 14
29 28 26 25 23 23 23 23 24 20 21 20 20 20 19 19 19 19 19 18 18 18 19 18 16 16 15 15 16 17 16 15 15 17 15 16 15 14 14 14 13 13 14
31 29 27 25 24 23 22 24 23 21 19 21 20 20 20 20 19 18 19 19 19 19 19 17 16 15 15 15 15 16 15 15 15 17 15 15 15 14 14 14 14 13 13
31 30 28 26 23 22 22 23 23 23 21 18 19 19 19 19 19 18 18 18 18 19 17 16 16 15 15 14 14 16 15 16 16 17 16 14 14 14 14 14 14 13 13
30 30 28 26 22 21 22 22 22 23 22 21 18 18 18 18 18 18 17 17 18 18 17 16 16 15 15 14 14 15 15 17 18 17 16 15 14 14 14 14 13 13 13
30 30 29 27 24 21 22 22 20 21 21 22 20 19 17 17 18 18 18 17 17 16 16 16 15 15 14 14 14 14 15 17 17 17 17 16 15 14 14 14 13 13 13
30 30 29 27 25 23 22 23 22 21 21 20 20 17 17 16 17 16 19 18 17 16 15 15 15 15 14 14 13 14 16 17 17 18 16 16 15 15 14 14 14 14 13
29 29 28 27 25 23 22 22 22 20 20 19 19 17 17 16 16 17 17 17 16 15 14 14 14 14 14 13 13 14 15 16 17 18 16 16 15 15 15 14 13 13 13
27 27 27 26 26 24 22 22 22 18 18 18 20 19 19 17 16 16 16 16 15 14 14 14 13 13 13 13 13 13 14 15 17 18 18 16 15 15 15 14 14 14 13
26 26 26 26 25 24 23 23 20 17 16 16 18 19 19 17 17 16 16 15 15 14 13 13 13 12 12 13 13 13 13 14 15 16 17 17 15 15 15 15 15 15 15
25 25 25 25 25 24 23 21 17 17 16 16 16 17 17 17 16 16 15 14 14 14 13 13 12 12 12 12 12 14 13 14 14 14 16 18 15 15 15 14 16 16 16
25 24 23 24 24 24 23 21 17 17 17 17 16 17 17 17 16 16 15 14 14 13 13 12 12 12 12 13 13 14 15 15 15 14 15 18 16 15 16 15 15 16 16
25 24 23 22 23 23 23 21 17 17 18 19 18 18 16 16 15 15 14 14 14 13 13 12 12 12 11 12 13 12 14 14 16 16 15 18 17 16 16 16 17 16 16
25 23 22 22 22 22 22 21 18 17 19 21 20 19 17 15 15 14 14 14 13 13 13 12 12 12 11 11 12 12 13 13 16 16 16 16 17 17 16 16 16 17 16

GFSSE_925_temp_114.txt.gz
Temp
25 26 26 24 24 23 23 22 23 23 22 22 22 22 22 22 22 22 21 21 21 20 20 20 20 20 20 20 21 21 20 20 20 20 20 20 19 19 19 18 18 18 18
26 27 26 25 24 23 22 22 22 22 22 22 22 22 22 22 22 21 21 20 20 20 20 20 20 20 20 21 21 20 20 20 20 20 19 19 18 18 18 18 18 18 18
26 27 25 24 24 23 23 22 22 22 21 21 22 22 21 22 21 21 20 20 20 20 20 20 20 19 20 20 20 20 20 20 20 20 19 18 18 18 18 19 18 18 17
26 26 26 25 24 23 23 22 22 22 22 21 21 21 21 21 21 21 20 20 20 20 20 20 19 19 19 19 20 20 19 20 20 19 19 19 17 18 18 18 17 17 17
25 24 26 25 24 23 23 22 22 22 21 21 21 21 21 21 21 20 20 20 20 20 20 20 19 19 19 19 19 20 19 20 19 20 19 20 18 17 18 17 17 17 17
26 25 26 25 24 23 23 22 22 22 20 19 20 20 21 21 20 20 20 20 20 20 20 19 20 20 19 19 19 20 20 20 20 20 20 19 18 17 17 17 17 16 16
27 26 25 25 25 23 22 22 22 22 20 20 20 20 20 20 20 20 20 20 20 20 20 20 20 20 19 19 19 19 20 19 19 19 19 18 18 17 16 16 16 16 16
26 24 24 24 25 23 22 22 22 21 21 20 20 20 20 20 20 20 20 20 20 20 20 20 19 19 19 19 19 19 20 19 19 19 18 18 17 16 16 16 16 16 16
25 23 23 23 23 22 22 21 21 21 21 20 20 19 19 20 20 20 20 20 20 20 20 20 19 19 19 18 19 19 20 19 19 18 18 18 17 16 16 16 16 16 15
25 23 22 21 22 22 21 21 21 21 21 20 19 19 19 20 20 20 20 20 20 20 19 19 19 19 19 18 19 19 20 19 19 17 17 17 16 16 15 15 15 15 15
24 23 22 20 20 20 21 20 20 20 20 20 20 19 19 19 19 19 20 20 20 19 19 19 19 18 18 18 18 18 19 19 19 19 18 17 16 16 15 14 14 15 15
25 24 23 22 21 21 21 20 20 20 20 20 19 19 19 19 19 19 19 19 19 19 19 18 18 18 18 18 18 18 18 18 18 17 18 17 16 15 15 14 14 14 14
26 25 25 24 23 22 22 21 19 19 19 19 19 19 19 19 20 20 19 19 19 19 18 18 18 18 17 17 18 18 18 17 16 16 17 17 16 15 15 14 14 14 13
28 27 26 24 23 22 23 22 21 20 20 19 19 19 19 19 20 19 19 19 18 18 18 18 18 17 16 16 17 17 18 17 17 16 17 16 16 15 14 14 14 13 13
30 28 27 26 24 23 23 24 24 22 20 20 20 20 20 20 19 19 19 18 18 18 18 18 17 17 16 15 16 16 17 17 16 15 14 16 16 15 14 14 14 13 13
31 29 28 26 24 23 22 23 24 22 21 21 20 20 20 19 19 19 19 18 18 18 18 18 17 16 16 15 15 15 16 16 16 15 14 15 15 15 14 14 14 13 13
31 31 28 26 25 23 22 22 23 23 21 21 20 20 20 20 19 19 18 18 18 18 18 17 17 16 16 15 15 15 15 16 15 15 14 15 14 14 14 14 14 13 13
31 31 28 27 25 24 23 22 22 23 23 20 20 19 19 19 19 19 19 18 18 17 17 17 16 16 15 15 15 14 15 15 15 15 15 14 14 14 14 14 14 14 13
31 31 30 27 24 24 22 22 22 22 22 22 20 19 19 19 18 19 18 18 18 17 16 16 16 16 15 14 14 14 14 15 15 15 16 15 14 14 14 14 14 14 13
31 31 30 28 25 23 22 22 22 21 21 21 21 20 19 18 17 18 18 18 18 17 16 16 15 15 15 15 14 14 14 14 15 16 15 15 15 15 14 14 14 14 13
29 28 28 28 26 24 23 22 22 22 21 21 20 20 18 17 17 17 17 17 18 17 16 16 14 14 14 14 14 13 13 14 14 16 16 15 15 15 14 14 14 13 13
28 27 27 27 26 25 23 22 22 22 21 20 20 20 19 17 17 16 16 17 17 16 15 14 14 13 13 13 14 13 13 13 14 15 16 16 15 15 15 14 14 13 13
26 26 26 26 26 26 25 24 23 20 18 18 18 19 19 19 18 17 16 17 17 16 15 14 13 13 13 13 13 14 13 13 13 15 15 15 15 15 15 14 14 14 14
26 25 24 24 24 25 25 24 21 18 17 17 17 17 18 18 18 17 17 16 15 15 14 14 14 13 13 13 13 13 13 14 13 13 16 15 15 15 15 15 15 15 15
26 25 24 23 23 23 24 24 20 18 19 18 16 16 17 18 17 17 16 15 14 14 14 14 13 13 12 13 13 12 13 13 13 14 13 15 15 15 15 15 15 15 16
26 24 23 23 23 23 23 23 21 18 18 18 17 16 16 17 17 17 16 16 14 14 14 13 13 12 12 12 13 13 13 13 13 14 13 14 14 15 15 15 15 16 16

GFSSE_925_temp_117.txt.gz
Temp
23 24 25 25 24 24 23 23 23 23 23 22 23 23 23 23 23 22 22 21 21 21 21 20 20 20 20 20 20 20 21 20 20 20 19 19 19 18 18 18 18 18 18
26 24 25 25 24 23 23 23 22 22 22 22 22 22 22 22 22 22 22 21 21 21 20 20 20 20 20 20 20 20 20 20 20 19 19 19 18 18 18 18 18 18 18
27 25 24 24 24 23 23 22 22 22 22 22 22 22 22 22 22 21 21 21 21 20 20 20 20 20 20 20 20 20 20 20 20 20 19 18 18 18 18 18 18 18 17
28 25 24 24 24 23 23 22 22 22 22 22 22 22 22 21 21 21 21 20 20 20 20 20 20 20 20 20 20 20 20 19 19 19 19 18 18 18 18 17 17 17 17
26 25 25 25 24 23 23 22 23 22 22 21 21 21 21 21 21 20 20 20 20 20 20 20 20 20 20 20 20 20 19 19 19 19 19 19 18 17 17 17 17 17 17
25 25 25 25 24 23 23 22 22 22 21 21 21 21 21 21 20 20 20 20 20 20 20 20 20 19 19 20 20 20 19 19 19 18 19 19 19 17 17 17 17 17 17
25 25 25 24 24 23 23 22 22 22 22 21 20 20 20 20 21 20 20 20 20 20 20 20 19 19 19 20 20 20 19 19 19 18 19 19 18 17 16 17 16 16 16
25 25 25 24 24 23 23 22 22 22 22 21 21 20 20 20 21 20 20 20 20 19 20 19 19 20 19 19 19 19 19 19 18 18 18 18 18 16 16 16 16 16 16
25 25 24 23 23 23 23 23 22 21 21 21 21 20 20 20 20 20 20 20 20 20 20 19 19 20 19 19 19 19 19 19 18 18 18 17 17 16 16 16 16 16 16
24 24 23 22 23 23 22 22 22 22 21 22 20 19 19 20 20 20 20 20 20 20 19 19 19 19 19 19 19 19 18 18 18 17 17 17 16 16 16 16 15 16 15
23 23 23 22 23 23 22 22 22 21 21 21 20 19 19 20 20 19 20 20 20 19 19 19 19 19 19 19 19 18 18 18 18 18 16 17 16 16 15 15 15 15 15
22 22 22 22 22 22 21 22 21 21 21 20 20 19 19 20 20 19 20 19 19 19 19 19 19 19 18 18 19 19 18 17 17 17 18 17 17 15 16 15 14 14 14
24 23 22 22 22 22 21 21 21 20 20 20 20 19 19 19 19 19 20 19 19 19 19 18 18 18 18 18 18 18 18 18 17 17 17 16 16 16 16 15 14 14 14
24 24 23 22 22 21 21 21 21 20 20 20 20 19 19 19 19 19 19 19 19 19 18 18 18 18 18 18 18 18 17 17 17 17 17 17 15 16 15 14 14 14 13
24 24 24 24 22 22 22 21 22 21 20 20 19 19 19 19 19 19 19 19 19 18 18 18 18 18 17 17 17 17 17 17 17 17 17 17 15 15 15 14 14 14 13
25 25 25 24 24 23 23 22 22 21 21 20 20 20 20 19 19 19 19 19 19 18 18 18 17 17 17 17 16 16 16 17 16 16 16 16 15 15 15 15 14 14 13
28 25 24 25 24 23 23 23 23 22 21 21 20 20 20 20 19 19 19 19 18 18 18 17 17 17 16 17 16 15 15 15 16 16 16 16 15 15 15 15 14 14 13
30 28 26 24 23 23 23 23 23 23 22 21 21 20 20 20 19 19 19 18 18 18 18 18 17 16 16 16 15 15 15 15 15 16 15 15 15 15 14 14 14 14 14
30 31 26 24 24 23 23 23 23 22 22 21 21 21 20 19 19 19 18 18 18 18 17 17 17 16 16 15 15 14 15 14 14 14 15 14 14 14 14 14 14 14 14
30 30 28 25 25 24 23 22 22 23 22 21 21 20 20 20 19 19 18 18 18 18 17 17 16 16 15 15 15 14 14 14 14 14 14 14 14 14 14 14 14 14 14
29 28 27 23 22 22 22 22 22 22 22 22 21 21 19 19 19 19 18 19 18 18 17 16 15 16 15 14 14 14 14 14 14 14 14 13 14 14 14 14 14 14 14
26 26 26 24 23 22 22 22 21 22 22 21 21 21 20 19 18 18 18 18 17 17 17 16 16 15 14 15 14 14 13 13 13 13 13 14 14 14 14 14 14 14 14
25 26 25 25 23 23 23 23 21 21 21 20 20 20 19 19 19 18 18 17 17 17 17 16 15 14 13 14 14 14 13 13 13 13 13 14 14 14 14 14 14 14 14
25 25 24 24 24 23 22 22 22 21 19 20 19 20 19 18 18 19 18 17 17 16 17 17 15 14 13 13 13 14 14 14 13 12 12 13 14 14 14 14 14 14 14
24 23 23 23 23 23 23 22 21 21 21 20 18 18 19 19 18 17 17 17 16 16 16 17 16 13 13 13 13 13 12 13 14 13 13 12 13 13 14 14 15 14 14
18 18 18 19 19 20 20 21 21 20 20 18 17 17 17 18 18 17 17 17 16 16 15 14 14 13 13 13 13 13 13 13 13 14 13 13 13 13 13 14 15 15 14

GFSSE_925_temp_120.txt.gz
Temp
22 23 23 24 24 24 24 24 24 23 23 23 23 23 23 22 22 21 21 21 21 20 20 21 20 20 20 20 20 20 20 20 20 19 19 18 18 18 18 18 18 18 18
25 24 23 24 24 24 24 23 23 23 23 23 23 23 23 22 22 21 21 21 20 20 20 20 20 20 20 20 20 20 20 20 19 19 18 18 18 18 18 18 18 18 18
26 24 23 23 23 23 23 23 23 22 22 22 22 22 22 22 22 21 21 21 21 20 20 20 20 20 20 20 20 20 19 19 19 19 19 19 18 18 18 18 18 18 18
26 24 23 23 23 23 23 23 22 22 22 22 22 22 22 21 21 21 21 20 20 20 20 20 20 20 20 20 20 20 19 19 19 19 19 18 18 18 17 17 17 17 17
25 24 23 23 23 23 23 22 22 22 22 22 21 21 21 21 21 21 20 20 20 20 20 20 20 20 20 20 20 19 19 18 19 19 19 19 18 17 17 17 17 17 17
25 24 23 22 23 23 23 23 22 22 21 21 21 21 21 21 21 21 20 20 20 20 20 20 20 20 20 20 19 19 19 18 19 19 19 19 19 17 17 17 17 17 17
24 23 23 23 23 23 23 23 23 22 21 21 21 21 21 21 21 20 20 20 20 20 20 20 20 20 19 19 19 19 18 18 18 18 18 18 19 17 17 17 17 17 17
25 23 22 22 23 23 23 23 23 23 22 21 21 21 21 21 21 20 20 20 20 20 20 19 20 19 19 19 19 19 18 18 18 18 18 18 17 16 16 17 17 17 17
25 24 22 22 23 23 23 23 23 22 22 21 21 21 21 21 21 20 20 20 20 20 19 19 20 20 19 19 19 19 18 18 18 18 18 18 17 16 16 17 16 16 16
23 23 23 22 22 22 22 23 23 22 22 21 21 21 21 21 21 20 20 20 20 20 19 19 20 20 19 19 19 18 18 18 18 18 18 17 17 16 16 16 16 16 16
22 23 23 22 22 21 22 22 22 22 21 21 20 20 20 20 20 20 20 20 20 19 19 19 19 20 19 19 19 18 18 17 17 18 18 17 17 16 16 15 15 15 15
20 21 23 22 22 21 21 21 21 21 21 21 20 20 20 20 19 19 20 19 19 19 19 19 19 19 19 18 19 18 17 18 18 18 18 17 16 16 16 16 15 14 15
23 21 22 22 21 21 21 21 21 21 20 20 20 20 21 19 19 19 19 19 19 19 19 19 18 19 19 18 18 18 17 17 18 17 17 17 16 16 15 16 15 14 14
22 23 23 22 22 21 21 21 21 21 21 21 20 20 20 19 19 19 19 19 19 19 19 18 18 19 19 18 18 18 17 16 17 17 17 17 17 16 15 16 15 14 14
22 23 24 23 23 22 21 21 21 21 21 21 21 20 20 19 19 19 19 19 19 18 18 18 18 18 18 18 18 17 17 16 17 17 17 16 16 16 15 15 14 14 14
23 24 24 23 24 24 22 22 22 22 21 21 21 20 20 19 19 19 19 19 19 18 18 18 18 18 18 18 17 17 17 17 16 17 17 17 16 17 16 15 15 14 14
23 24 22 23 22 22 22 21 22 22 22 21 21 20 20 19 19 19 19 19 19 19 18 18 18 17 17 17 17 16 16 16 16 16 16 16 16 16 15 14 15 14 14
24 23 23 22 21 22 22 22 22 22 22 21 21 21 20 20 19 19 19 19 19 18 18 17 17 17 17 17 16 16 15 15 14 15 16 16 15 15 15 14 15 14 14
26 25 23 23 22 22 22 22 22 22 21 21 21 21 20 20 19 19 19 19 18 18 18 17 17 17 16 16 16 15 14 14 14 14 15 15 15 14 14 14 15 14 14
29 26 25 23 23 22 21 21 21 21 21 21 21 21 20 20 20 19 19 19 18 18 17 17 17 16 16 15 14 14 14 14 14 14 14 14 14 14 14 14 14 14 15
29 27 25 23 23 21 20 20 19 20 21 21 21 21 20 20 20 19 19 19 18 18 17 17 17 16 15 15 14 14 14 14 14 14 14 13 14 14 14 14 14 14 14
27 27 24 22 21 21 20 20 20 20 21 21 21 21 20 20 19 19 19 18 18 18 17 17 16 15 15 15 14 14 13 13 13 13 14 13 13 14 14 14 14 14 14
24 24 22 21 21 20 20 20 21 21 20 19 20 20 20 20 19 19 19 19 19 18 17 17 16 16 14 14 14 15 13 14 13 13 13 13 13 13 14 14 14 14 14
20 21 21 20 20 20 20 20 20 22 20 21 20 20 21 20 19 19 19 19 19 17 17 16 17 16 15 14 14 14 14 14 13 13 13 13 13 13 13 13 14 14 14
16 17 18 18 17 18 19 19 20 20 19 20 20 19 19 20 19 19 18 18 18 17 16 16 16 16 16 14 13 13 13 13 13 13 13 12 12 12 13 14 14 14 14
15 16 17 17 16 16 16 16 16 16 16 17 18 17 18 19 19 18 18 18 18 18 17 16 16 17 16 14 14 13 14 14 13 13 12 13 13 12 12 13 13 14 14

GFSSE_925_temp_123.txt.gz
Temp
22 24 23 23 23 24 24 24 24 24 24 23 23 23 23 22 22 21 21 20 20 20 20 20 20 20 20 20 20 20 20 20 20 20 19 19 18 18 18 18 18 18 18
25 24 23 23 23 23 23 23 23 23 23 23 23 23 22 22 21 21 21 20 20 20 20 20 20 20 20 20 20 20 20 20 20 20 19 19 18 18 19 18 18 18 18
25 23 23 23 23 23 23 23 23 23 23 23 22 22 22 21 21 21 21 20 20 20 20 20 20 20 20 20 20 20 20 20 19 19 19 19 18 18 18 18 18 18 18
25 23 22 23 23 23 23 23 23 22 22 22 22 22 22 21 21 21 21 20 20 20 20 20 20 20 20 20 19 19 19 19 19 19 19 19 18 18 17 18 17 17 17
23 23 23 22 22 22 22 22 22 22 22 22 22 21 21 21 21 21 20 20 20 20 20 19 20 20 19 19 19 19 19 18 19 19 19 19 17 17 17 17 17 17 17
23 23 23 23 22 22 22 22 22 22 22 22 21 21 21 21 21 21 21 20 20 20 20 20 20 20 19 19 19 18 18 18 18 18 18 18 18 17 17 17 17 17 17
23 23 23 23 22 22 22 22 22 22 22 21 21 21 21 21 21 21 21 20 20 20 20 20 20 20 19 19 18 18 18 18 18 18 18 18 18 17 17 17 17 17 17
24 24 23 22 22 22 22 22 22 22 22 21 21 21 21 21 21 21 20 20 20 20 20 20 20 20 19 19 18 18 18 18 18 18 18 18 18 17 16 17 17 17 17
24 23 22 22 21 22 22 23 22 22 22 21 21 21 21 21 20 20 20 20 20 19 20 20 20 20 19 19 18 18 18 18 18 18 18 18 18 16 16 17 16 16 16
23 23 22 21 21 22 22 22 22 23 22 21 21 21 21 20 20 20 20 20 20 19 20 19 19 19 19 18 18 18 18 18 18 18 18 18 17 17 17 16 16 16 16
20 21 21 21 21 21 22 22 22 22 22 21 21 21 20 20 20 20 20 19 19 19 19 19 19 19 19 18 18 18 18 18 18 18 18 18 17 16 16 16 16 16 16
18 19 20 21 21 21 21 21 21 21 20 20 21 20 20 20 20 20 20 19 19 19 19 19 19 19 19 18 18 18 18 18 18 18 18 18 17 16 16 16 15 15 15
21 19 19 20 22 21 21 19 19 19 19 20 20 20 20 20 19 19 19 19 19 19 19 19 19 19 19 18 18 18 18 18 18 18 18 17 16 16 16 16 16 14 15
19 20 20 21 21 21 21 19 19 18 18 19 20 20 20 19 19 19 19 19 19 19 18 18 18 19 18 18 18 17 17 18 18 18 17 17 16 16 16 15 16 14 14
19 19 21 21 21 21 20 21 20 19 19 21 20 20 20 20 19 19 19 19 19 19 18 18 18 18 18 18 17 17 17 17 17 17 17 17 17 16 16 15 15 14 14
20 20 21 22 22 21 21 21 22 22 22 21 21 21 20 20 20 19 19 19 18 18 18 18 18 18 18 18 17 17 17 17 16 17 17 17 16 16 16 16 15 15 14
21 22 22 22 22 21 21 21 21 21 21 21 21 21 20 20 20 19 19 19 18 18 18 18 18 18 18 17 17 17 16 16 16 16 17 16 16 16 16 16 15 15 14
22 21 22 20 22 21 20 20 20 21 21 21 20 20 20 20 19 19 19 18 18 18 18 18 18 17 17 17 17 16 16 15 15 15 16 16 16 16 16 15 14 15 14
23 22 21 20 21 22 21 20 20 20 20 20 20 20 20 20 19 19 18 18 18 18 18 17 17 17 16 16 16 16 15 15 14 14 14 15 15 16 15 14 14 14 14
24 23 23 22 22 22 20 19 19 19 19 20 20 20 20 20 19 19 18 18 18 18 18 17 17 16 16 15 15 14 15 15 14 13 14 14 15 14 14 14 14 14 14
26 24 23 21 22 20 19 18 18 18 19 19 20 20 20 20 20 19 19 18 18 18 17 17 16 16 15 15 15 14 14 14 14 14 14 14 14 14 14 14 14 14 14
23 25 23 23 22 20 19 19 19 18 18 19 20 20 20 20 20 19 19 18 18 18 17 17 17 15 15 15 15 14 14 13 14 14 14 13 13 13 13 14 14 14 14
23 22 23 23 22 21 19 19 19 18 19 18 18 19 19 19 19 19 19 19 18 19 18 18 16 15 15 14 15 16 13 13 13 13 13 13 13 13 13 13 13 14 14
15 18 18 19 19 18 19 18 19 18 18 20 21 21 21 20 19 19 19 19 19 18 18 18 17 16 15 14 14 15 15 14 13 13 13 13 13 13 13 13 13 14 14
13 13 15 16 16 17 18 18 17 17 17 17 19 19 20 20 19 19 19 19 19 19 18 18 17 15 15 15 14 14 13 14 14 12 13 13 13 13 13 13 13 14 14
12 12 13 13 13 15 16 16 16 17 16 16 16 17 18 18 18 19 19 19 20 19 18 17 18 17 15 15 15 15 14 14 13 12 12 13 13 12 13 13 12 13 13

GFSSE_925_temp_129.txt.gz
Temp
22 25 24 23 23 23 23 23 24 24 24 23 23 23 23 22 22 22 20 20 20 20 20 20 21 21 21 20 20 20 20 20 20 20 19 19 19 19 19 19 19 18 19
25 25 24 23 23 23 23 23 24 24 24 23 23 23 22 22 21 21 20 20 20 20 20 20 20 20 21 20 20 20 20 20 20 20 19 19 19 19 19 19 19 19 19
25 25 24 23 23 23 23 23 23 23 23 23 22 22 22 22 21 20 20 20 20 20 20 20 20 20 20 20 20 20 20 19 19 19 19 18 18 19 18 19 19 18 18
25 25 24 23 23 23 23 23 23 23 23 22 22 22 22 21 21 20 20 20 20 20 20 20 20 20 20 20 20 20 19 19 19 19 19 19 18 18 18 18 19 18 18
23 24 23 23 23 22 22 22 22 22 22 22 22 21 21 21 21 20 20 20 20 20 20 20 20 20 20 20 19 19 19 19 19 19 19 18 18 17 18 18 18 18 18
21 24 24 23 23 22 22 22 22 22 22 22 22 21 21 21 21 20 20 20 20 20 20 20 20 20 20 19 19 19 19 19 19 18 18 17 18 18 19 18 18 17 18
20 23 24 23 23 22 22 22 22 22 22 22 22 21 21 21 20 20 20 20 20 20 20 20 20 20 20 19 19 19 19 19 18 18 18 18 17 17 18 18 18 18 18
20 21 23 23 23 22 22 22 22 22 22 22 22 21 21 21 20 20 20 20 19 20 20 20 20 20 19 19 19 19 18 18 18 17 17 18 17 17 17 17 17 17 17
20 21 22 22 22 22 21 21 21 21 22 22 21 21 21 21 20 20 20 20 20 20 20 20 19 19 19 19 18 18 18 18 18 18 17 18 17 18 17 17 17 17 17
20 21 21 20 20 20 21 21 21 21 21 21 21 21 21 20 20 20 20 20 20 20 20 20 19 19 19 19 18 18 18 18 17 17 17 17 17 17 16 17 16 17 17
19 20 20 19 19 20 20 20 21 21 21 21 21 21 20 20 20 19 19 19 19 19 20 20 20 19 18 18 18 18 18 18 18 17 17 18 18 17 16 17 17 16 16
17 17 18 18 18 18 18 19 19 19 19 19 20 20 20 20 19 18 19 19 19 19 19 20 19 19 18 18 18 18 17 18 18 18 18 18 17 17 17 17 16 16 16
19 17 17 17 18 18 18 18 18 18 18 18 18 19 18 19 19 19 19 18 18 18 18 18 18 18 18 18 18 18 18 18 18 18 18 18 18 17 17 17 17 16 16
19 18 17 17 17 17 17 17 18 18 18 17 18 19 18 18 18 18 18 18 18 18 18 17 17 17 19 18 18 18 18 17 18 18 18 18 17 17 16 17 16 16 16
20 18 17 16 17 17 17 17 17 17 18 18 18 17 19 18 18 18 18 17 18 17 17 17 17 17 18 18 18 18 18 18 18 17 17 18 17 17 16 16 16 15 15
21 19 17 16 16 16 17 17 17 17 17 18 18 18 18 17 17 18 18 17 17 17 17 17 18 17 17 17 18 18 17 17 17 17 17 17 17 17 17 16 16 15 15
21 21 18 16 16 16 16 17 17 17 17 17 17 18 18 18 17 17 17 17 17 18 17 17 17 17 17 17 17 17 17 17 16 17 17 17 17 17 16 16 16 16 15
22 21 19 18 16 17 16 16 17 16 16 16 17 17 18 18 18 17 17 17 17 18 17 17 16 16 16 16 16 16 16 16 16 16 16 16 16 16 17 16 16 16 15
23 21 19 18 17 16 16 16 16 16 16 16 16 16 17 18 18 17 17 17 19 18 17 16 16 16 15 15 16 17 17 16 15 15 15 15 15 16 16 16 16 16 15
23 21 20 19 18 17 16 16 16 16 16 16 16 16 17 17 17 17 17 19 19 17 17 16 16 16 16 16 16 16 16 16 16 15 16 15 14 14 15 15 16 16 15
22 21 20 19 18 17 17 16 16 16 16 16 16 16 16 17 17 17 16 17 18 18 18 17 16 15 15 15 15 14 14 15 14 14 15 15 15 15 15 15 15 15 15
21 21 20 19 19 18 18 17 18 17 17 17 16 16 16 16 17 18 18 18 18 17 16 16 16 15 15 15 15 14 16 15 14 14 14 14 14 14 14 14 14 15 15
20 21 20 20 20 18 18 18 18 17 17 16 16 16 16 16 17 17 17 18 18 17 16 16 16 16 15 15 15 17 16 18 16 14 14 14 14 14 14 14 13 13 14
19 19 21 20 20 19 18 18 18 18 18 17 18 16 16 16 16 16 16 16 17 17 16 16 16 16 16 15 15 15 17 16 18 17 14 13 13 13 14 13 13 13 13
13 16 17 17 18 18 18 18 18 18 18 18 17 16 16 17 16 16 16 16 16 16 16 16 16 16 16 16 15 15 14 14 15 16 18 15 14 14 14 13 13 13 13
10 11 11 12 11 15 16 17 17 17 16 16 16 16 16 16 16 18 18 19 15 17 16 17 16 16 16 16 16 15 15 15 14 15 15 16 15 16 14 13 13 13 13

GFSSE_925_temp_132.txt.gz
Temp
29 24 24 23 23 24 24 24 24 24 23 23 23 22 22 21 21 21 20 20 20 21 21 21 21 21 20 20 21 21 20 20 20 19 19 20 20 20 20 19 20 20 19
28 23 24 24 23 24 23 24 23 23 23 23 22 22 22 21 21 21 20 20 21 21 21 21 21 21 20 20 20 20 20 20 20 20 20 20 20 19 20 19 20 18 19
27 23 23 24 23 23 23 24 23 23 22 22 22 22 22 21 21 21 20 21 21 21 20 20 20 20 21 20 20 20 20 19 19 20 20 21 20 19 19 19 19 19 19
26 23 22 23 23 23 23 23 23 23 22 22 22 22 22 21 21 21 20 20 21 21 20 20 20 20 20 20 20 20 20 20 20 20 21 22 21 19 19 18 19 19 18
25 23 22 23 23 23 23 23 23 23 23 22 22 22 22 21 21 20 20 20 21 20 20 20 20 20 20 20 20 20 20 19 20 21 23 22 21 19 19 18 18 18 18
25 24 21 23 23 23 23 23 23 23 23 22 22 22 21 21 21 20 20 21 20 20 20 20 20 20 20 20 19 19 19 19 20 22 22 20 21 18 18 18 18 18 18
24 24 20 23 23 23 23 23 23 23 22 22 22 21 21 21 21 20 20 20 20 20 20 20 20 20 20 20 19 19 19 20 22 22 22 21 19 18 18 18 18 18 18
23 23 20 22 22 23 22 22 22 22 22 22 21 21 21 21 21 20 20 20 20 20 20 20 20 20 19 19 19 19 19 19 21 21 21 21 18 18 18 18 18 18 18
22 21 21 19 21 22 22 22 22 22 22 21 21 21 21 21 21 20 20 20 20 20 20 20 20 20 19 19 19 19 19 19 21 21 21 21 18 18 18 18 17 17 17
22 21 21 21 20 20 20 21 22 22 22 21 21 21 21 21 20 20 20 20 20 20 20 20 20 19 19 19 19 19 19 19 21 20 21 20 19 18 17 17 17 17 17
22 22 22 21 21 21 20 20 21 21 21 21 21 20 20 20 19 19 19 19 20 20 20 19 19 19 19 18 18 18 19 21 21 21 21 19 18 18 18 18 17 17 17
23 22 22 22 21 21 21 20 19 19 19 19 19 19 20 21 20 20 19 19 19 20 20 19 19 19 18 19 17 18 19 21 20 21 21 19 18 17 18 17 17 17 17
25 23 22 21 21 21 22 20 21 21 21 20 20 20 20 21 21 20 20 18 19 19 19 18 17 18 19 20 20 20 20 19 21 21 20 18 18 17 17 17 17 17 17
26 24 22 22 21 21 22 20 20 21 21 21 21 20 21 21 21 21 21 20 20 20 20 20 20 20 20 19 20 20 19 20 20 20 20 18 18 17 17 17 17 17 16
27 24 23 21 21 21 21 21 20 21 20 21 21 20 21 21 21 21 21 21 21 20 21 20 21 20 20 19 19 19 19 19 19 20 20 18 18 17 17 17 16 15 16
26 25 23 21 20 20 20 21 20 19 20 20 21 19 18 21 21 21 21 21 20 20 20 21 21 21 20 20 19 19 19 20 19 19 19 19 18 17 17 17 16 16 15
25 25 24 21 20 19 18 20 20 20 18 18 18 18 18 19 20 20 20 21 20 19 20 20 20 20 20 20 20 19 19 19 19 19 19 19 19 17 17 17 16 16 16
24 25 25 23 20 19 18 20 20 21 18 18 18 18 17 18 20 19 19 19 21 18 19 19 19 20 20 20 20 20 19 19 19 18 19 19 19 19 18 17 17 16 16
23 24 25 23 21 19 18 19 20 21 19 19 18 18 18 18 18 18 18 17 20 18 18 19 19 19 19 19 20 19 19 18 17 18 18 18 18 18 19 17 17 16 16
23 23 24 24 21 19 18 18 19 20 19 20 20 19 18 17 17 17 18 17 18 20 18 17 18 19 19 19 19 18 18 17 18 16 18 18 18 17 17 18 17 16 16
21 22 23 24 22 20 18 18 18 18 17 19 20 19 19 17 17 16 17 17 17 20 20 17 17 17 17 18 17 16 16 16 16 16 17 17 18 17 17 17 17 16 15
20 20 22 23 23 21 20 19 19 19 19 18 18 18 18 16 16 16 17 20 19 20 19 17 17 17 17 16 17 17 17 16 15 16 17 18 17 17 17 16 16 16 16
19 19 20 23 24 22 21 20 20 21 21 20 20 20 19 18 17 16 16 19 19 18 18 16 16 17 16 16 18 19 19 21 21 17 16 18 17 16 16 17 16 16 16
19 19 20 22 23 22 21 21 20 21 22 22 21 21 20 19 19 18 18 18 18 17 16 16 16 17 18 16 16 17 20 20 21 21 18 16 18 17 15 14 15 15 14
19 19 20 22 23 23 21 21 21 21 22 22 21 21 19 18 19 18 18 17 16 16 16 16 15 16 17 17 16 16 17 17 17 19 21 19 18 17 17 17 17 16 14
16 17 19 20 22 23 21 20 21 21 22 22 20 19 18 17 17 17 16 16 16 16 17 17 16 16 16 16 17 17 17 18 18 18 18 19 19 19 18 18 17 16 14

GFSSE_925_temp_135.txt.gz
Temp
33 25 24 25 24 24 25 25 24 23 23 23 23 23 22 22 21 21 21 21 21 21 21 21 21 20 21 21 21 21 21 21 20 20 20 20 20 21 20 20 19 19 19
32 24 24 24 24 24 25 25 24 23 23 23 23 22 22 22 21 20 21 21 21 21 20 21 20 20 20 21 21 20 20 20 20 20 20 19 19 20 20 19 20 19 19
31 24 23 24 24 24 24 25 24 24 23 23 23 22 22 21 21 21 21 21 20 20 20 20 20 20 20 20 20 20 20 20 20 20 21 21 20 20 20 19 19 19 19
30 25 22 23 24 24 24 24 24 24 23 23 22 22 22 21 21 21 20 20 20 20 20 20 20 20 20 20 20 20 20 20 21 21 21 21 21 19 19 19 19 19 19
29 25 23 23 23 24 24 24 24 23 23 22 22 22 22 21 21 21 20 20 20 20 20 20 20 20 20 20 20 20 20 21 21 21 22 22 22 19 19 19 18 19 18
28 26 23 23 23 23 23 24 24 23 23 22 22 22 21 21 21 21 20 20 20 20 20 20 20 20 20 20 20 20 20 21 22 22 19 22 21 19 18 18 18 18 18
27 26 23 22 22 23 23 23 24 23 23 22 22 22 21 21 21 21 21 20 20 20 20 20 20 20 20 20 20 20 20 21 21 24 23 22 19 19 18 18 18 18 18
26 25 21 21 22 23 23 23 23 23 23 22 22 22 21 21 21 21 21 20 20 20 20 20 20 20 20 20 20 20 20 21 23 23 22 21 20 18 18 18 18 18 18
25 25 22 20 21 22 22 23 23 23 23 22 22 22 21 21 21 21 20 20 20 20 20 20 20 20 20 20 19 20 20 21 22 23 22 20 19 19 18 18 18 18 18
25 24 22 21 20 20 20 22 22 22 22 22 22 21 21 21 21 20 20 20 20 20 20 20 20 19 19 19 19 19 20 21 21 22 21 20 20 19 18 18 18 17 17
25 25 24 23 22 21 21 20 21 22 21 22 21 21 20 19 19 19 19 19 19 19 20 20 19 19 19 19 19 19 20 21 22 22 21 20 19 18 18 18 18 17 17
28 25 25 24 24 23 23 21 20 20 20 20 19 19 20 21 20 21 20 19 19 19 19 19 19 19 19 19 18 18 19 21 22 22 21 20 19 18 18 18 17 17 17
30 28 26 25 24 24 24 24 22 22 21 20 20 20 21 21 21 21 20 19 19 19 18 18 18 18 19 21 21 20 21 22 22 22 20 20 19 18 17 17 17 17 17
30 29 27 26 24 24 25 24 24 23 22 22 22 21 21 21 21 21 20 21 20 20 20 19 20 20 21 21 21 21 21 22 23 22 21 20 19 18 17 17 17 17 17
28 29 28 26 24 24 23 24 24 24 23 23 22 21 21 22 21 21 21 21 21 21 22 21 22 21 21 21 21 21 21 21 21 22 21 20 19 18 17 17 17 17 17
26 28 28 26 24 24 23 24 23 23 24 23 23 22 21 22 22 21 21 20 21 21 23 21 22 22 22 22 21 21 21 21 21 21 22 20 19 18 18 17 16 16 16
25 26 26 26 24 23 23 23 23 23 23 23 24 23 21 21 22 21 21 20 21 21 21 21 22 22 22 23 21 21 21 21 21 20 21 21 20 19 18 18 17 16 16
25 25 25 26 24 23 23 23 23 23 22 23 23 23 21 21 22 22 21 21 21 21 21 22 23 21 21 23 23 22 21 21 20 20 20 20 21 19 19 18 18 17 16
25 25 25 25 25 23 22 22 22 23 22 22 20 23 20 20 21 22 22 22 22 21 20 21 22 21 21 21 21 22 22 21 21 20 19 19 20 20 19 18 18 17 17
24 24 24 24 24 23 22 20 21 22 22 22 20 21 21 19 19 21 22 21 21 21 20 20 22 21 22 22 22 20 20 20 20 21 20 20 19 19 19 18 18 17 17
22 22 22 23 24 24 22 21 21 22 22 22 22 21 22 19 18 19 21 21 19 21 21 19 20 21 21 21 20 20 19 19 19 20 20 20 19 19 19 19 18 17 17
21 22 22 22 22 23 23 21 20 22 22 22 22 22 21 21 18 17 18 21 18 20 22 20 18 18 19 19 19 19 19 19 18 18 19 20 19 18 19 19 18 18 17
18 21 21 21 21 22 24 22 21 21 22 21 23 23 21 21 18 17 17 20 20 19 21 20 19 18 18 18 19 20 20 22 23 20 18 19 19 19 18 18 18 17 17
14 20 21 21 21 21 22 24 21 21 22 21 22 21 21 20 18 17 17 18 21 21 21 18 19 17 18 18 17 18 19 20 21 21 20 19 19 19 18 17 18 17 17
10 13 18 21 20 21 22 23 22 21 22 23 23 22 22 20 20 18 17 17 19 20 18 18 17 17 17 17 16 17 18 18 19 19 21 20 19 20 20 18 18 17 17
7 8 11 14 20 20 21 22 22 21 23 24 23 23 22 22 20 20 19 19 18 18 18 17 17 17 16 17 17 17 17 18 18 19 20 21 20 20 20 19 18 17 18

GFSSE_925_temp_141.txt.gz
Temp
24 25 26 26 27 26 26 26 25 25 25 24 24 24 24 24 23 22 22 22 22 22 22 22 21 21 21 21 21 21 21 21 21 21 21 20 19 19 19 19 19 19 19
27 25 25 26 26 26 25 25 25 25 25 24 24 24 24 23 23 22 22 22 21 21 21 21 21 21 21 21 21 21 21 21 21 21 21 20 19 19 19 20 19 19 19
28 25 25 25 25 25 25 25 24 24 24 24 24 23 23 23 23 22 21 21 21 21 21 20 20 20 20 21 20 21 21 20 20 20 20 19 19 19 19 20 19 19 19
27 26 24 25 25 25 25 25 24 24 24 24 24 23 23 23 22 22 21 21 21 21 20 20 20 20 20 20 20 21 21 20 19 20 19 20 19 19 19 19 19 19 19
26 25 24 24 24 24 24 24 24 24 23 24 24 24 23 22 22 21 21 20 20 20 20 20 20 20 20 20 21 20 20 19 20 20 19 20 20 19 19 19 19 18 18
24 25 24 23 23 24 23 24 24 23 23 23 23 24 23 22 22 21 21 20 20 20 20 20 20 20 20 20 20 20 20 19 20 20 20 19 20 19 19 18 18 18 18
24 24 24 23 23 23 23 23 23 23 23 23 23 23 23 22 22 21 21 20 20 20 20 20 20 20 20 20 21 20 20 20 19 19 20 19 20 19 19 18 18 18 18
25 24 24 23 23 23 22 23 23 23 23 23 23 23 23 22 21 21 20 20 20 20 20 20 20 20 20 20 21 20 20 20 19 20 20 19 19 19 19 18 18 18 18
25 25 24 24 23 23 22 22 22 22 22 22 22 22 22 22 21 21 20 20 20 20 20 20 20 20 20 20 21 21 21 21 20 20 20 20 20 19 19 18 18 18 18
24 24 24 24 23 23 22 22 22 22 22 22 22 22 22 22 21 21 20 20 20 20 20 20 20 20 20 20 21 21 21 20 20 20 20 20 19 19 19 18 18 17 17
24 24 24 23 23 23 22 22 22 21 21 21 21 21 21 21 21 20 20 20 19 19 20 20 20 20 20 20 21 21 21 20 20 20 20 20 19 19 18 18 18 17 17
27 25 23 23 23 23 22 22 22 21 21 20 20 20 20 20 20 20 20 20 20 19 19 20 20 20 20 20 20 21 21 20 20 20 20 20 20 19 18 18 18 17 17
26 26 25 22 23 23 22 22 21 21 21 20 20 20 20 20 20 20 19 19 19 19 19 19 19 19 20 20 20 21 21 21 20 20 20 20 20 19 19 18 18 17 17
26 26 26 25 23 22 22 22 22 21 21 20 19 20 20 20 19 19 19 19 19 19 19 19 19 19 20 19 19 20 21 20 20 20 19 20 20 20 19 18 17 17 17
18 20 22 25 25 24 21 22 22 22 22 21 20 19 20 20 19 20 19 19 19 19 19 19 19 19 20 20 19 20 21 20 20 20 20 19 19 20 19 19 18 17 17
15 15 17 19 23 25 25 22 22 22 22 21 20 20 20 20 20 20 20 20 19 19 19 20 19 20 20 20 20 21 21 21 21 21 21 20 20 20 20 19 19 17 17
12 12 14 16 16 21 25 23 23 23 21 21 21 20 20 20 20 20 20 20 20 19 20 19 20 20 20 20 20 21 21 22 22 21 21 20 19 19 20 19 19 18 17
9 9 11 12 14 15 16 21 23 22 23 22 20 21 20 20 20 20 20 20 20 20 20 20 20 20 20 21 21 22 22 22 21 21 21 20 21 20 19 19 19 18 18
8 7 8 9 10 11 13 17 20 23 22 23 22 21 21 21 20 20 20 20 20 20 20 21 20 22 21 21 21 21 22 22 22 21 21 21 20 21 20 20 20 19 19
7 6 6 6 8 9 10 13 17 21 22 21 23 22 21 21 21 20 20 20 20 20 20 21 21 21 22 22 21 21 21 21 22 21 21 21 21 21 20 20 20 19 18
6 5 4 5 5 6 8 10 11 18 21 21 21 22 22 21 21 21 20 20 20 19 20 20 21 21 21 21 22 21 20 21 21 20 21 20 20 20 20 20 20 19 19
5 5 4 3 3 5 6 8 9 13 21 21 21 21 21 22 21 21 20 20 20 19 20 20 20 20 21 21 20 19 17 19 21 21 21 20 20 20 20 19 19 19 19
3 3 3 2 2 4 5 6 8 12 18 21 20 20 20 21 21 21 20 20 20 19 19 19 20 20 19 20 20 19 15 15 16 20 20 20 20 19 19 19 19 19 19
2 1 1 1 2 3 3 5 7 8 12 19 20 20 20 20 20 20 20 20 20 19 19 19 20 20 19 19 19 20 20 19 15 16 18 18 19 19 19 19 19 19 19
1 1 0 0 1 2 2 4 6 8 9 12 17 19 19 19 20 20 20 20 20 20 19 19 19 19 19 19 19 19 19 19 18 16 15 16 17 18 19 19 18 18 19
0 -0 -0 -0 0 1 1 3 5 7 8 10 12 16 18 18 19 20 19 19 19 19 18 19 20 19 19 19 18 19 19 18 17 16 15 15 16 19 19 18 18 18 18

GFSSE_925_temp_144.txt.gz
Temp
23 24 25 25 25 26 27 26 26 26 25 25 24 24 23 23 22 22 22 22 21 21 21 21 21 21 21 21 21 21 21 20 20 20 20 19 19 19 19 19 20 19 19
26 24 25 25 25 25 26 26 26 25 25 25 24 24 23 23 22 22 21 21 21 22 21 21 21 20 20 20 21 21 20 20 20 20 20 19 19 19 19 19 19 19 19
27 25 24 25 25 25 25 25 25 25 25 25 24 24 23 22 22 22 21 21 21 21 21 21 21 20 20 21 20 20 20 20 20 20 20 19 19 19 19 19 19 19 19
26 25 24 24 24 24 24 25 24 24 24 24 24 24 23 23 22 22 21 21 21 21 21 20 20 20 20 21 20 20 20 19 19 20 19 19 19 19 19 19 19 18 18
25 25 24 24 24 24 24 24 24 24 24 24 24 24 23 23 22 22 21 21 21 20 20 20 20 20 20 20 20 19 19 19 19 19 19 19 19 19 19 19 18 18 18
25 24 24 24 24 23 23 24 23 23 23 23 23 23 23 23 22 22 21 21 21 20 20 20 20 20 20 20 19 19 20 20 20 20 19 19 19 19 18 18 18 18 18
25 24 25 24 23 23 23 23 23 23 23 23 23 23 23 23 22 22 21 21 20 20 20 20 20 20 20 20 19 19 20 20 19 19 20 19 19 19 18 18 18 18 18
25 24 24 23 23 23 23 23 23 22 22 22 22 22 22 22 22 21 21 21 20 20 20 20 20 20 20 20 19 19 20 20 20 19 19 19 19 19 18 18 18 18 18
24 24 23 23 23 23 23 22 22 22 22 22 22 22 22 22 22 21 21 20 20 20 20 20 20 20 20 20 19 20 20 20 21 20 20 20 19 19 18 18 18 18 18
24 25 24 23 23 23 23 23 22 22 21 21 21 21 21 21 21 21 21 20 20 20 20 20 20 20 20 20 20 20 20 20 20 20 20 19 19 19 18 18 18 18 18
23 22 23 22 23 23 22 22 23 22 21 21 21 20 20 20 20 20 20 20 20 20 20 20 20 20 20 20 20 20 20 20 20 20 20 20 19 19 19 18 18 18 18
22 21 21 23 21 21 21 22 22 22 21 21 20 20 20 20 20 20 20 20 20 20 20 20 20 20 20 20 20 20 20 20 20 20 20 20 20 19 19 19 18 17 17
14 16 18 18 18 21 21 20 21 21 21 21 20 20 19 20 20 19 19 19 19 19 19 19 19 19 20 20 21 20 20 19 19 20 20 19 19 19 18 18 18 17 17
12 12 13 14 17 19 18 20 20 19 21 21 20 20 19 19 19 19 19 19 19 19 19 19 19 20 20 20 20 21 20 20 20 19 19 19 19 19 19 18 18 17 17
10 10 10 13 13 15 18 17 19 21 19 22 22 21 20 19 19 19 19 19 19 19 19 19 19 19 19 20 20 20 20 20 20 19 20 19 19 19 19 19 18 17 17
8 8 8 10 12 13 14 17 17 17 21 19 20 22 21 20 19 19 19 19 19 19 19 19 20 19 20 20 20 20 20 20 21 21 20 20 19 19 19 19 18 18 17
7 7 7 7 9 11 13 13 16 17 16 20 20 21 21 21 20 19 19 18 19 19 19 19 19 19 19 20 20 20 20 20 21 20 21 21 20 19 19 19 19 18 17
6 6 6 7 7 7 9 12 13 16 17 17 19 19 21 21 21 19 18 18 19 19 19 19 19 19 19 19 20 20 20 21 21 21 21 21 21 20 19 19 19 18 18
4 5 4 4 5 6 5 7 11 12 15 17 18 20 19 20 20 20 18 18 18 19 19 19 19 19 19 19 20 20 21 21 22 21 21 21 21 21 20 20 20 19 18
3 3 3 3 3 4 5 4 6 9 11 15 16 19 20 20 20 20 19 18 18 18 18 18 18 19 19 20 20 20 21 21 21 22 21 21 21 21 20 20 20 19 19
2 2 1 1 1 2 2 3 4 5 8 11 15 16 19 21 20 20 20 18 19 18 18 18 18 18 18 20 20 19 20 20 20 21 21 21 21 21 20 20 20 20 19
1 1 1 0 1 1 2 2 3 5 6 8 12 16 18 20 21 20 19 19 18 18 18 18 18 18 18 19 19 18 16 18 19 21 21 21 21 20 20 20 20 19 19
1 0 -0 0 0 1 1 2 3 4 6 8 9 12 15 19 19 20 19 19 18 18 18 18 18 18 18 19 20 19 14 17 15 19 20 20 21 20 20 20 20 19 19
-0 -1 -1 -0 -0 0 0 1 2 3 5 7 7 9 11 15 18 20 20 19 17 18 19 18 18 18 19 19 17 20 21 20 16 15 18 19 20 20 20 19 19 19 19
-0 -1 -1 -0 -1 -1 -0 0 1 2 4 5 7 8 9 12 16 18 19 19 17 16 19 18 18 18 19 19 19 17 19 19 19 14 15 15 17 18 19 19 19 18 18
-0 -1 -1 -1 -1 -1 -1 -0 1 1 2 4 6 7 9 10 13 16 17 18 17 16 17 18 18 18 18 19 18 18 18 18 16 14 14 14 15 17 18 19 19 18 18

GFSSE_925_temp_150.txt.gz
Temp
25 25 25 25 25 24 24 24 25 25 24 24 24 24 23 22 22 22 21 20 20 21 21 21 21 21 21 21 20 20 20 20 20 20 20 19 19 19 19 19 19 19 19
23 24 24 25 24 24 24 24 24 24 24 24 23 23 23 22 22 21 21 21 20 21 21 21 21 21 21 21 20 20 20 20 20 20 20 20 19 19 19 19 19 19 19
24 23 24 24 24 23 23 24 24 23 23 23 23 23 22 22 22 21 21 21 20 20 21 21 21 21 21 20 20 20 20 20 20 19 19 19 19 19 19 19 19 19 18
24 23 24 24 23 23 23 23 23 23 23 23 22 22 22 22 22 21 21 21 20 20 21 21 21 21 20 20 20 20 20 19 19 19 19 19 19 19 19 19 19 18 19
22 22 23 23 22 23 23 22 22 22 22 22 22 22 22 22 22 21 21 21 20 20 20 20 20 20 20 20 20 20 20 19 19 19 19 19 19 19 19 19 19 18 19
22 22 23 23 23 22 22 22 22 22 22 22 22 21 21 21 21 21 21 21 20 20 20 20 20 20 20 19 20 20 19 19 19 19 19 19 19 19 19 18 18 18 18
18 19 19 20 20 21 22 22 22 22 22 22 21 21 21 21 21 21 21 21 20 20 20 20 20 20 20 19 19 20 19 19 19 19 19 19 19 18 18 18 18 18 18
17 18 18 18 18 18 19 19 21 21 21 21 21 21 21 21 20 21 21 21 20 20 20 20 20 20 20 20 19 19 19 19 19 19 19 19 19 18 18 18 18 18 18
17 18 18 18 18 18 18 18 19 18 19 20 21 21 20 20 20 20 20 20 20 20 20 20 20 20 20 19 19 19 19 19 19 19 19 19 19 18 18 18 18 18 18
15 16 16 18 19 19 19 18 19 19 20 20 19 20 20 20 20 20 20 20 20 20 20 20 20 20 20 19 19 19 19 19 20 19 19 19 19 18 18 18 18 18 17
15 13 14 15 17 18 18 18 18 18 19 19 19 19 19 19 19 20 20 20 19 20 19 20 20 20 20 19 19 19 19 19 19 19 19 19 19 18 17 18 18 18 17
9 11 12 13 14 17 17 17 18 18 18 18 18 20 20 19 19 19 19 19 19 19 19 19 19 19 20 19 19 19 19 19 19 19 19 19 19 18 18 18 18 17 17
6 7 9 10 13 14 16 16 17 17 18 18 17 17 18 18 18 19 18 19 19 19 18 18 19 19 19 19 19 19 19 20 20 20 19 19 19 18 18 18 18 18 17
5 5 6 8 9 11 13 14 15 16 17 17 16 17 17 18 17 18 18 18 18 18 18 18 18 19 19 19 19 19 19 19 20 20 20 19 19 18 18 18 18 17 17
4 4 4 5 7 9 10 11 13 14 15 15 16 16 16 17 18 18 18 19 18 18 18 18 18 18 18 19 19 19 19 19 20 20 20 19 19 19 18 18 18 17 17
3 3 3 4 4 5 7 8 9 10 12 14 14 15 15 16 16 17 17 18 19 17 17 17 19 18 18 18 18 18 19 19 19 20 20 20 19 19 19 18 18 17 17
2 2 2 2 3 4 4 5 5 7 8 10 12 13 13 14 14 15 17 17 18 17 17 17 17 18 18 18 18 18 18 19 19 19 20 20 19 19 19 18 18 18 17
1 1 2 2 3 4 4 4 4 4 4 5 7 9 10 11 12 14 14 17 17 17 17 16 17 16 17 18 18 18 18 18 19 19 19 19 19 19 19 19 19 18 18
1 1 1 1 1 1 1 2 3 4 4 3 4 5 6 7 10 11 13 14 16 17 17 16 16 16 15 16 17 18 18 18 18 19 19 19 19 19 19 19 19 18 18
1 0 0 0 0 0 1 0 1 1 2 2 3 4 5 5 7 7 9 11 15 17 17 16 16 16 16 16 17 17 17 18 19 19 19 20 19 20 19 19 19 18 18
-0 -1 -1 -1 -0 -0 0 0 0 1 1 2 2 4 4 5 5 6 7 9 12 15 16 17 16 16 16 15 15 15 16 17 17 19 19 19 20 20 20 20 19 19 18
-0 -1 -1 -1 -0 -0 -0 -0 -0 0 1 1 2 2 3 4 5 5 6 8 9 11 15 16 15 16 16 15 16 16 16 16 16 18 18 18 19 20 20 20 20 19 19
-0 -1 -1 -1 -1 -0 -1 -1 -1 -0 0 1 1 1 2 2 4 5 5 7 9 10 12 15 16 16 16 15 16 18 15 17 17 17 17 17 17 19 20 20 20 20 20
-0 -1 -1 -1 -1 -1 -1 -1 -1 -1 -0 -0 0 1 1 2 3 4 4 5 7 9 11 14 16 16 16 16 15 15 19 19 16 16 16 17 17 17 18 19 20 20 20
-1 -2 -2 -1 -1 -1 -2 -2 -2 -1 -1 -1 -0 -0 1 1 2 3 4 5 6 8 10 13 15 15 14 15 15 16 15 17 16 15 17 14 15 16 18 19 20 20 20
-2 -2 -2 -2 -2 -2 -2 -2 -2 -2 -2 -1 -1 -0 -0 0 1 2 3 3 5 7 9 11 14 16 15 14 14 14 16 17 15 14 14 14 17 16 16 18 18 19 20

GFSSE_925_temp_153.txt.gz
Temp
23 24 23 23 24 24 23 23 23 24 24 24 24 23 23 23 22 21 21 21 21 21 21 21 21 21 21 21 21 21 20 20 20 20 20 20 19 19 19 19 19 19 19
20 21 22 22 23 23 23 23 23 23 23 24 23 23 23 22 22 22 21 21 21 21 21 21 21 21 21 21 21 20 20 20 20 20 20 20 20 19 19 19 19 19 19
19 21 22 22 23 23 23 22 22 23 23 23 23 23 22 22 22 21 21 21 21 21 21 21 21 21 21 20 20 20 20 20 20 20 19 20 19 19 19 19 19 19 19
20 21 22 22 23 23 22 22 22 22 22 23 22 22 22 22 22 21 21 21 21 21 21 20 20 21 20 20 20 20 20 20 20 20 19 19 19 19 19 19 19 19 19
18 18 19 19 20 21 22 22 22 22 22 22 22 22 22 22 21 21 21 21 21 21 21 20 20 20 20 20 20 20 20 20 20 19 19 19 19 19 19 19 19 19 18
17 18 18 18 19 19 19 20 21 21 21 21 21 21 21 21 21 21 21 21 20 20 20 20 20 20 20 20 20 20 20 19 19 18 18 18 19 19 19 18 18 18 18
17 17 18 18 18 18 18 19 19 18 19 20 20 21 21 21 20 20 20 20 20 20 20 21 20 20 20 20 20 20 19 19 19 18 18 18 18 19 18 18 18 18 18
17 17 18 18 17 17 18 18 18 18 18 19 20 20 20 20 20 20 20 20 19 19 20 21 20 20 20 20 20 20 19 19 19 18 18 18 18 19 18 18 18 18 18
17 17 18 18 18 18 17 17 18 18 18 18 19 19 19 20 20 19 20 19 19 19 20 20 20 20 20 20 19 19 19 19 18 18 18 18 19 18 18 18 18 18 18
15 15 16 17 18 18 17 17 17 17 18 19 19 19 20 19 19 19 19 19 19 19 19 19 20 20 19 20 19 19 19 19 18 18 18 18 19 18 17 18 18 17 18
13 12 13 14 15 17 16 17 18 17 18 19 18 19 19 19 18 18 18 19 19 19 19 19 19 19 19 19 19 19 19 18 18 18 19 19 19 18 17 18 18 17 17
7 8 8 10 12 14 15 16 17 17 17 17 16 17 17 18 19 19 19 19 19 18 18 19 19 19 19 18 18 19 18 18 19 19 19 19 19 19 18 18 18 17 17
6 6 6 7 10 12 13 14 15 15 16 17 17 17 16 17 17 18 19 19 18 18 18 18 18 18 18 18 18 18 18 19 18 19 19 19 19 19 18 18 18 17 17
5 5 5 5 8 9 10 12 12 12 12 13 14 15 16 16 16 17 17 17 18 17 18 17 17 17 18 18 17 18 19 18 18 18 19 20 19 19 18 18 18 17 17
4 4 3 4 6 7 7 7 7 8 10 12 10 11 12 13 15 15 16 17 17 17 17 17 17 17 17 17 17 17 17 18 18 18 18 20 19 19 18 18 18 17 17
3 3 3 3 2 3 4 5 5 5 5 6 9 10 9 9 9 12 15 15 17 17 17 17 17 18 17 17 17 17 17 17 18 18 18 19 19 19 19 18 18 18 17
3 2 2 2 2 2 2 3 3 4 4 5 5 6 7 7 7 7 9 12 15 15 17 17 17 17 16 17 17 17 17 17 18 18 18 18 19 19 19 19 18 18 17
2 2 2 2 2 2 2 2 3 3 3 4 4 5 5 6 6 7 8 9 10 13 15 17 17 16 16 16 17 17 17 17 17 18 18 18 19 19 19 19 18 18 18
2 2 2 1 1 2 2 2 2 2 3 3 4 4 5 5 5 6 7 8 8 10 14 16 16 16 16 16 16 17 17 18 18 18 18 18 18 18 18 19 19 18 18
2 1 1 1 1 1 2 2 2 2 2 3 3 3 3 4 4 5 6 6 7 9 10 14 15 16 16 16 16 17 17 17 18 18 18 18 18 18 18 18 18 18 18
1 1 1 1 1 1 2 2 2 2 2 2 3 2 3 3 3 4 5 5 5 6 9 10 11 16 16 16 16 16 17 17 17 18 18 18 18 18 18 18 18 18 18
1 0 0 1 1 1 1 1 1 1 2 1 1 2 2 2 2 3 4 4 4 5 7 9 11 13 15 16 16 16 17 17 16 16 17 17 17 18 18 18 18 18 18
0 -0 -0 0 0 0 -0 0 0 0 1 1 0 0 0 1 2 2 3 3 4 5 6 7 10 13 15 15 15 17 16 19 19 17 16 17 17 17 18 17 17 18 18
-0 -1 -0 -0 0 -0 -1 -1 -1 -1 -0 -0 -0 -0 -0 0 1 2 2 2 3 3 5 6 8 12 14 15 16 15 17 16 19 20 17 17 17 17 17 18 17 17 17
-1 -0 -1 -0 -0 -1 -1 -1 -1 -1 -1 -1 -1 -1 -1 -0 0 1 1 1 2 3 4 5 7 8 11 14 15 15 15 15 14 15 19 16 17 18 18 17 17 18 17
-1 -1 -1 -1 -1 -1 -1 -1 -1 -1 -1 -2 -1 -1 -1 -1 -1 -0 -0 -0 -0 1 2 3 4 6 8 11 14 15 15 15 16 15 15 18 17 17 17 18 17 17 17

GFSSE_925_temp_156.txt.gz
Temp
26 21 22 23 23 23 24 23 23 23 23 23 23 23 23 22 22 22 22 21 21 21 21 21 21 21 21 21 21 21 20 20 20 20 20 19 19 20 20 20 20 20 19
22 20 21 22 23 23 23 23 23 23 23 23 23 23 22 22 22 22 22 21 21 21 21 21 21 21 21 21 21 20 20 20 20 20 20 19 19 20 19 20 20 19 19
21 22 20 21 22 22 23 23 23 23 22 22 22 22 22 22 22 22 21 21 21 21 21 21 21 21 21 21 21 20 20 20 20 20 20 22 21 19 19 19 19 19 19
18 19 18 19 19 20 21 21 22 22 22 22 21 21 22 21 21 21 21 21 21 21 21 21 20 20 20 20 20 20 20 20 20 20 22 23 22 19 19 19 19 19 19
17 17 18 18 19 19 19 20 20 20 21 21 21 21 21 21 21 21 21 21 21 21 21 21 20 20 20 20 20 20 20 20 20 20 22 22 22 20 19 19 19 19 19
17 17 18 18 18 19 19 19 19 20 21 20 20 20 20 20 21 21 20 21 21 21 20 20 20 20 20 20 20 20 20 20 20 22 21 21 22 20 19 19 19 18 18
16 17 17 18 18 18 18 19 18 18 19 20 20 20 20 20 20 20 20 20 20 20 20 19 19 20 20 20 20 20 20 20 20 22 21 22 21 19 19 18 18 18 18
13 13 15 17 17 17 17 17 18 18 18 19 19 19 19 20 20 20 20 20 20 20 20 20 19 19 19 20 19 19 20 20 20 22 22 22 20 19 18 18 18 18 18
13 12 13 14 17 18 17 17 17 18 18 18 19 19 19 19 20 19 19 19 20 20 20 19 19 19 19 19 19 19 19 19 20 22 21 22 20 19 18 18 18 18 18
13 12 12 12 13 13 15 17 17 17 17 17 17 18 18 19 19 19 19 19 19 20 20 19 19 19 19 19 19 19 19 19 19 22 22 22 20 19 18 18 18 18 18
13 12 11 11 11 12 13 14 16 17 17 17 17 17 18 18 19 19 19 19 19 19 19 19 19 19 19 19 19 19 19 20 21 22 22 21 20 19 18 18 18 18 18
13 12 11 10 10 11 13 12 13 14 14 14 14 15 15 16 18 18 19 19 19 19 19 19 19 18 18 19 20 19 18 21 22 22 22 21 20 19 18 18 18 18 17
12 11 10 9 8 9 10 11 13 13 13 13 12 12 13 14 16 17 17 18 18 19 18 20 19 19 20 20 22 22 21 21 21 22 22 21 20 19 19 18 18 18 17
11 10 9 9 8 8 9 10 11 11 11 12 12 11 11 13 14 14 15 17 17 18 18 18 19 20 21 21 21 21 21 21 22 22 22 21 20 19 19 18 18 18 17
10 9 8 8 7 7 8 8 9 9 10 10 11 10 10 11 12 12 13 14 16 16 17 18 18 19 20 21 21 20 20 21 21 21 22 21 20 20 19 19 18 18 18
9 8 7 7 6 6 7 7 8 8 8 9 10 9 9 9 10 11 12 13 14 15 15 16 16 18 19 20 21 20 20 21 21 21 21 21 20 20 19 19 19 18 18
9 8 7 7 6 6 6 7 8 8 8 9 9 9 8 8 8 9 11 12 12 13 13 14 17 17 17 18 20 20 19 19 21 21 21 22 21 20 19 19 19 18 18
8 7 7 6 6 6 6 6 7 7 7 8 8 8 7 7 7 8 10 11 11 11 12 13 14 15 17 17 18 18 20 19 20 20 21 21 22 22 20 19 19 18 18
7 6 6 6 6 6 6 7 7 7 7 7 7 7 6 6 6 6 8 9 7 8 10 13 14 15 16 16 17 17 18 18 19 21 20 21 21 22 22 20 19 18 18
7 6 6 6 5 6 6 7 7 8 8 7 7 6 5 6 5 4 5 6 5 6 6 8 10 12 12 15 16 17 17 18 18 21 21 21 21 21 21 22 20 18 18
6 6 5 5 5 5 6 6 7 7 7 7 6 5 5 4 4 3 4 5 5 5 5 6 7 8 12 13 16 17 17 18 19 19 21 21 21 21 21 21 21 20 19
6 5 5 5 5 5 5 5 5 5 6 6 5 5 4 4 3 3 3 3 4 4 4 5 6 8 9 13 15 17 18 18 17 18 19 21 21 21 21 21 21 21 21
6 5 5 4 4 4 3 4 4 5 6 5 5 5 4 3 3 2 2 2 2 3 3 4 5 6 8 10 14 15 17 19 20 18 18 19 20 20 21 21 20 20 20
5 4 4 4 4 3 2 3 3 4 4 3 3 3 3 3 2 2 1 1 2 1 2 2 4 5 6 8 9 14 16 18 20 19 18 18 19 20 19 21 21 20 20
4 4 4 4 4 3 2 1 2 2 2 2 2 2 2 3 2 2 1 1 1 1 1 1 2 3 4 4 6 8 13 16 16 16 19 18 18 19 19 19 21 20 19
4 4 3 3 3 2 1 1 1 1 1 1 1 1 1 2 2 2 0 -0 0 0 -0 -0 1 2 3 3 5 7 9 14 16 16 16 17 16 17 18 20 20 20 20

GFSSE_925_temp_159.txt.gz
Temp
23 22 22 22 23 23 23 23 23 23 22 22 22 22 22 22 22 22 22 21 21 21 21 21 21 20 21 21 21 21 20 20 20 20 20 20 20 20 20 20 20 20 19
19 20 20 19 21 21 22 22 22 22 22 22 21 21 21 21 21 22 21 21 21 21 21 21 21 21 21 21 20 20 20 20 20 20 21 20 20 20 20 20 21 19 19
17 18 19 18 19 21 21 21 21 21 21 21 21 21 21 21 21 21 21 21 21 21 21 21 21 21 21 21 20 20 20 20 20 21 21 22 21 20 20 20 20 20 19
16 18 18 19 18 19 19 20 21 21 22 21 21 21 21 20 20 20 21 21 21 21 21 21 20 20 20 20 20 20 20 20 21 22 21 22 22 21 19 19 19 19 19
16 16 18 18 19 18 19 19 19 20 21 21 21 21 20 20 20 20 20 20 20 20 20 20 20 20 20 20 20 20 20 20 21 22 22 24 22 20 20 19 19 19 19
16 17 18 19 19 19 19 19 19 19 19 20 20 20 20 21 21 20 20 20 20 20 20 20 20 20 20 20 20 20 20 20 21 22 23 23 22 20 20 19 19 19 19
16 16 16 17 18 18 18 19 19 18 19 18 19 20 20 20 20 20 21 21 21 20 20 20 19 19 19 19 19 20 20 20 21 23 24 24 22 21 20 19 18 19 19
15 15 15 15 16 17 17 17 18 18 18 18 19 18 19 19 19 20 20 20 20 20 20 19 19 19 19 19 19 19 20 20 20 23 24 24 22 21 20 19 18 18 18
16 15 15 14 15 15 16 17 17 17 17 17 17 18 20 19 19 19 19 20 20 20 19 19 19 19 19 19 19 19 19 20 20 22 24 24 22 21 20 19 18 18 18
16 15 15 14 14 15 16 16 17 17 17 16 16 17 18 20 19 20 19 19 20 20 20 19 19 19 19 19 19 19 19 19 19 21 24 24 22 21 20 19 18 18 18
17 16 14 14 14 15 17 16 16 16 16 16 16 17 17 17 17 18 18 19 19 19 20 20 19 19 19 19 19 19 19 19 21 22 24 24 22 21 20 19 18 18 18
17 16 15 13 13 14 16 16 16 17 16 15 15 14 15 16 17 17 17 19 19 19 19 19 19 19 19 19 21 20 18 20 22 23 25 24 22 21 20 18 18 18 18
16 15 14 12 11 12 14 15 15 16 15 15 15 13 14 15 16 17 17 17 17 17 18 18 19 19 19 21 22 22 21 21 22 23 25 23 22 21 20 19 18 18 18
15 14 13 12 11 11 12 13 14 14 14 14 14 13 13 14 14 14 16 16 17 17 17 17 17 19 20 20 22 22 23 23 23 23 24 23 22 21 20 19 19 18 18
15 13 12 11 11 11 11 11 12 12 12 12 13 12 11 12 13 13 13 14 16 17 17 17 16 17 17 19 21 22 22 22 22 23 23 22 22 22 20 19 19 18 18
14 12 11 11 10 10 10 10 11 11 11 12 12 11 10 10 10 11 12 14 15 15 16 16 16 15 17 17 18 20 21 22 22 22 22 22 22 21 21 20 19 19 18
13 12 11 11 10 10 10 10 11 11 11 11 11 11 9 9 9 9 11 12 13 13 12 14 15 16 17 17 18 18 19 20 22 22 22 22 21 21 21 20 19 19 19
12 11 11 10 10 10 10 10 11 10 11 11 11 11 9 9 8 8 10 11 10 10 10 11 13 15 16 17 17 18 18 19 20 20 21 22 22 21 21 21 20 19 19
11 11 10 10 9 9 10 10 11 11 11 11 11 10 8 8 7 6 8 8 7 8 8 9 10 11 11 11 14 16 18 18 19 19 19 21 22 22 22 21 21 20 19
11 10 10 9 9 9 10 11 11 11 11 10 10 8 8 8 7 5 6 6 6 6 7 6 6 7 9 9 11 14 17 17 17 18 20 21 21 21 22 22 21 20 20
10 10 9 9 9 9 10 10 10 10 10 10 9 8 8 7 6 6 5 5 5 5 5 5 6 7 7 9 11 12 16 18 18 18 18 20 22 22 22 22 21 20 19
10 9 9 9 8 8 8 9 8 9 9 9 9 8 7 7 6 6 4 4 4 3 4 4 5 5 6 7 9 9 15 18 19 18 18 19 21 22 22 22 22 21 20
10 9 9 8 8 7 6 8 8 9 9 9 8 8 6 6 5 5 4 3 3 3 3 3 3 4 4 4 6 8 13 18 21 20 19 18 19 21 22 22 22 22 22
9 8 8 8 7 6 6 6 6 7 7 7 7 6 6 6 5 4 3 2 2 2 2 2 2 2 3 4 4 6 7 7 12 18 21 19 19 19 20 22 22 22 21
9 8 7 7 7 6 5 5 5 5 5 5 5 5 5 5 5 4 2 2 1 1 1 1 1 1 2 3 4 4 5 6 8 13 15 17 19 19 19 20 21 22 21
8 7 7 6 6 5 4 4 4 4 4 4 4 4 4 4 4 3 1 1 1 1 0 0 1 1 2 2 2 4 5 7 8 9 12 16 18 17 18 19 19 20 21

GFSSE_925_temp_162.txt.gz
Temp
18 18 20 21 22 22 22 22 22 22 22 22 22 22 21 21 21 21 21 22 21 21 21 21 21 21 21 21 21 21 20 20 21 21 21 21 21 21 20 19 19 19 19
16 17 19 20 21 21 21 22 22 22 22 22 22 21 21 21 21 21 21 21 21 21 20 20 21 21 21 21 21 20 20 20 21 21 21 21 21 21 20 20 20 19 20
17 17 18 19 19 20 21 21 21 21 21 21 21 21 21 21 20 20 20 20 20 20 20 20 20 20 20 20 20 20 20 21 21 21 20 19 20 20 21 20 20 20 19
16 17 19 18 18 19 20 20 20 20 20 20 20 21 21 21 20 20 20 20 20 20 20 20 20 20 20 20 20 20 20 21 21 22 20 20 20 20 21 20 19 19 19
17 17 18 19 19 18 19 19 20 20 20 19 20 20 20 20 20 20 20 20 20 20 20 20 19 19 20 20 20 20 20 21 22 21 20 21 20 21 21 20 19 19 19
17 17 17 18 19 19 18 18 19 19 20 20 19 19 20 20 20 20 20 20 20 20 20 20 19 19 20 20 20 20 20 20 21 21 21 21 22 21 21 20 19 19 19
16 16 16 16 17 17 18 19 18 18 18 18 19 20 19 19 19 20 20 20 20 20 20 20 19 19 19 20 20 20 20 20 21 21 21 21 22 22 21 20 19 19 19
15 15 15 16 16 17 17 17 17 17 17 17 17 18 19 19 20 20 20 20 20 20 20 20 19 19 19 19 19 19 20 20 20 20 22 23 23 21 21 21 19 19 19
16 15 15 15 15 16 16 17 17 17 17 17 17 17 18 19 19 19 20 20 20 20 19 20 19 19 19 19 19 19 19 20 20 21 21 22 22 21 21 21 20 19 18
17 16 15 15 15 16 17 17 16 16 16 16 16 17 18 18 19 18 19 20 19 19 19 19 19 19 19 19 19 19 19 19 19 20 21 21 22 22 22 21 20 19 18
17 16 14 14 14 16 17 17 17 16 16 16 15 16 16 17 17 17 18 18 19 20 19 19 19 19 19 19 19 19 19 19 19 20 22 22 22 22 22 21 20 19 18
17 16 14 13 13 14 16 16 16 16 15 15 14 14 14 15 15 16 16 18 18 19 19 19 19 18 19 18 18 19 20 20 19 20 21 22 22 22 22 21 20 19 18
16 15 14 12 12 12 14 14 14 14 14 14 14 13 12 13 14 14 14 15 16 17 17 18 17 17 17 18 19 20 21 21 20 20 21 22 22 22 22 22 20 19 18
16 14 13 12 11 11 12 12 13 12 12 13 13 12 11 11 11 12 12 13 14 15 16 17 17 17 17 17 18 19 19 19 22 21 22 22 22 22 22 22 21 19 18
15 13 12 12 11 11 11 11 12 11 12 13 12 11 10 10 10 10 11 12 13 14 14 13 14 15 15 16 17 18 19 19 18 21 22 23 23 22 22 22 21 19 18
15 13 12 11 11 11 11 12 12 11 12 12 12 11 9 9 9 9 10 11 12 11 11 12 12 13 15 16 16 17 17 19 18 17 22 22 21 21 22 22 21 20 19
14 13 12 12 10 11 11 11 12 11 12 12 11 10 9 9 8 7 8 9 9 9 9 10 10 11 12 13 14 16 16 17 18 20 19 22 22 21 21 21 21 20 19
13 12 11 11 10 11 10 11 11 11 11 11 11 10 8 8 7 7 7 7 7 7 8 8 8 7 8 9 11 11 13 14 16 18 20 20 21 22 21 21 21 21 20
12 12 11 10 10 10 11 11 12 12 11 11 10 9 8 8 7 6 7 6 6 6 7 6 6 6 7 7 8 11 12 12 14 16 18 19 19 21 21 21 20 20 20
12 11 11 10 9 10 11 11 11 11 11 11 10 9 8 7 7 6 5 5 5 4 4 4 5 5 6 7 8 8 9 11 13 14 17 18 19 20 20 21 21 20 20
11 11 10 10 9 9 10 10 10 10 10 10 10 9 7 7 6 6 5 4 4 4 4 4 4 4 5 5 6 7 8 10 13 14 16 17 18 19 20 21 21 20 19
11 10 10 10 9 8 8 9 8 9 10 10 9 8 7 6 6 5 4 3 3 3 3 3 2 3 4 4 4 5 9 11 14 13 17 18 17 18 19 20 21 21 20
10 10 10 9 9 7 7 8 8 9 9 8 7 7 7 6 5 5 3 2 2 2 2 2 2 2 2 3 4 5 7 9 8 10 11 14 17 17 18 19 20 21 21
10 9 9 9 8 7 6 6 6 6 6 6 6 6 6 5 5 4 2 2 2 1 1 1 1 1 1 2 3 4 4 4 6 8 9 10 12 16 18 19 20 20 21
10 8 8 8 7 6 5 5 5 5 5 5 5 5 4 4 4 3 2 1 1 1 1 1 1 1 1 1 2 2 3 4 5 6 7 10 11 11 14 17 18 20 21
9 8 7 7 6 5 5 5 5 5 5 5 4 3 3 3 3 2 1 1 0 0 0 0 0 0 1 1 1 1 1 3 4 5 6 8 9 11 12 14 16 17 19

GFSSE_925_temp_165.txt.gz
Temp
17 18 19 20 21 21 22 22 22 22 22 22 22 22 22 21 21 21 21 21 20 20 21 21 21 21 20 20 20 20 20 21 21 20 20 20 21 21 20 19 19 19 19
16 17 18 19 21 21 21 21 21 21 21 21 22 22 21 21 21 21 21 21 20 20 20 20 21 21 20 20 20 20 20 20 20 20 20 20 20 20 20 20 19 19 19
16 17 18 18 20 20 21 21 21 21 21 21 21 21 21 21 21 20 20 20 20 20 20 20 20 20 20 20 20 20 20 20 20 20 20 20 21 20 20 20 20 19 19
16 18 18 18 18 19 20 20 20 20 20 20 20 20 20 20 20 20 20 20 19 20 20 19 19 20 20 20 20 20 20 21 20 20 20 20 21 20 20 20 19 19 19
17 17 19 19 18 17 19 19 19 20 20 20 20 20 20 19 19 19 19 19 19 19 19 19 19 19 19 20 20 20 20 20 20 20 20 20 21 20 20 20 19 19 19
16 16 17 17 17 18 18 18 18 18 19 19 20 20 20 20 20 20 19 19 19 19 19 19 19 19 19 19 20 20 20 20 20 20 20 20 20 20 20 21 20 19 18
16 16 16 16 17 17 17 18 17 17 16 17 19 19 19 19 20 20 19 19 19 19 19 20 19 19 19 19 20 20 20 20 20 20 20 20 20 21 21 21 20 19 18
15 15 16 16 16 17 17 17 17 16 16 16 17 18 18 18 19 19 19 19 19 19 19 19 19 19 19 19 19 20 20 20 20 20 20 20 21 20 21 21 20 19 19
16 15 15 16 16 16 17 17 16 16 16 16 17 17 18 17 18 17 18 18 18 18 19 19 19 19 19 19 19 19 19 20 20 21 20 20 20 20 21 21 20 19 19
16 15 15 16 16 16 16 16 16 16 15 15 16 17 17 17 17 17 17 17 17 17 18 19 19 19 19 19 19 19 19 19 19 20 21 20 20 20 21 21 21 20 19
15 15 15 15 16 16 16 16 15 15 15 14 15 16 17 15 15 16 16 16 16 17 17 17 18 18 18 18 18 19 19 19 19 20 21 22 21 20 20 20 21 20 19
15 13 13 14 14 15 15 15 14 14 14 13 13 14 15 14 14 14 15 16 16 16 16 16 17 17 17 17 18 18 18 19 19 19 20 21 20 21 21 21 20 21 20
14 13 12 12 13 13 14 13 13 13 13 12 12 13 13 12 12 12 13 13 14 14 15 15 15 15 15 16 16 16 17 18 18 18 19 20 21 21 21 21 21 21 20
13 12 12 12 12 12 12 12 12 12 12 12 11 12 11 11 10 10 11 11 11 11 12 13 13 14 14 14 15 16 17 17 17 18 18 20 20 21 21 21 21 21 20
13 12 11 11 11 11 12 12 12 12 12 11 11 10 9 9 9 9 9 9 9 10 10 10 10 11 12 12 13 13 15 16 17 18 18 20 19 19 21 21 21 21 21
13 12 11 11 11 11 11 11 12 11 11 11 10 10 8 8 8 8 8 7 8 7 8 8 8 8 9 10 11 12 13 14 15 16 18 19 19 19 19 21 21 21 21
12 12 11 10 11 11 11 11 11 11 11 10 10 9 8 7 7 7 6 6 6 6 6 6 6 6 6 7 8 10 11 13 14 15 14 16 18 19 18 20 21 21 21
12 11 11 10 10 11 11 11 11 11 11 10 9 8 7 7 6 6 5 5 5 5 4 4 4 4 5 6 6 7 8 10 12 14 14 15 16 17 19 19 21 21 20
11 11 10 10 10 11 11 11 11 11 11 10 9 8 7 6 6 5 4 4 4 3 3 3 3 3 4 4 5 5 6 7 11 13 15 16 16 16 18 19 19 20 20
11 11 10 9 10 10 10 10 10 10 10 9 8 7 7 6 5 5 4 3 3 3 3 3 3 3 3 4 3 5 5 8 8 10 10 12 14 16 17 18 19 19 20
10 10 10 9 8 9 8 9 9 9 9 8 7 7 6 6 5 4 3 2 2 2 2 2 2 2 2 2 4 4 6 10 10 8 9 11 12 14 16 17 17 19 19
10 10 9 8 7 7 7 8 8 9 7 7 6 6 5 5 5 4 3 2 2 2 1 1 1 1 1 2 2 4 6 8 9 7 8 8 10 11 13 15 17 17 19
10 9 9 8 7 6 6 7 7 8 7 6 5 5 5 4 3 2 2 1 1 1 1 1 1 1 1 1 2 3 5 5 4 8 7 8 7 9 10 12 14 16 18
9 9 8 7 6 5 5 5 5 5 5 4 4 4 4 3 3 2 1 1 0 1 0 0 0 1 1 1 1 2 2 2 4 4 6 6 8 6 7 9 10 12 14
8 8 7 6 6 5 5 5 5 5 4 4 3 3 3 2 2 1 0 0 -0 -0 -0 -0 -0 -0 0 0 1 0 0 1 2 4 4 5 5 6 6 7 9 10 12
7 7 7 6 5 5 5 5 5 4 4 3 3 2 2 1 1 1 -0 -1 -1 -1 -1 -1 -1 -1 -0 -0 -0 -0 -1 -0 -0 1 2 3 4 5 6 7 8 9 11

GFSSE_925_temp_168.txt.gz
Temp
17 16 18 18 20 21 21 22 22 21 21 21 21 21 21 21 21 21 21 20 20 20 20 21 20 20 20 20 20 20 20 20 20 19 20 19 19 19 19 19 19 19 19
16 17 17 18 18 20 20 20 21 21 21 20 21 21 21 21 21 21 21 20 20 20 20 20 20 20 20 20 20 20 20 20 19 19 20 20 20 20 19 19 19 19 19
16 17 17 17 18 20 20 20 21 21 20 20 20 20 20 20 20 20 20 20 20 19 19 20 20 20 20 20 20 20 20 20 19 20 19 20 20 20 20 19 19 19 19
15 17 18 17 17 19 19 20 20 20 20 19 19 19 19 19 19 19 19 19 20 20 20 19 19 20 20 20 20 20 20 20 19 20 19 19 19 19 19 19 19 19 19
16 16 18 18 17 17 18 18 18 19 19 19 19 19 19 19 19 19 19 19 19 19 19 19 19 19 20 20 20 20 20 20 20 19 20 19 19 20 20 19 19 19 19
16 16 16 17 17 17 18 17 17 16 18 18 19 19 19 19 19 18 19 19 19 19 19 19 19 19 19 19 20 20 20 20 20 20 19 20 20 20 20 19 19 19 19
16 16 16 16 17 17 17 17 16 16 16 17 18 18 18 18 18 18 18 18 18 18 18 18 19 19 19 19 19 19 19 19 19 20 20 20 20 20 19 19 19 19 19
16 15 16 16 16 16 17 16 16 16 17 17 17 18 17 17 17 17 17 17 17 17 18 18 18 19 19 19 19 19 19 19 19 19 20 20 20 20 20 19 19 20 19
15 15 15 16 16 16 16 16 16 16 16 17 17 17 17 17 17 17 17 17 17 16 16 17 18 18 18 18 19 19 19 19 19 19 19 20 20 20 20 20 19 19 19
15 15 15 16 16 15 15 15 15 15 15 16 17 17 17 17 17 16 16 16 16 16 16 16 16 16 17 17 17 18 18 18 19 20 19 20 20 20 19 20 20 19 19
14 14 14 15 15 15 15 15 15 14 14 15 16 16 17 16 16 16 15 15 15 15 15 16 16 16 16 16 17 17 17 18 18 19 19 20 20 20 20 20 20 20 19
13 13 13 13 14 14 14 14 14 13 13 13 14 14 14 14 14 14 14 14 14 14 14 14 15 15 16 15 16 16 16 17 17 18 19 19 19 19 20 20 20 20 19
13 13 12 12 12 13 13 13 13 12 12 12 12 12 12 13 12 12 12 13 12 13 13 13 14 14 14 14 15 15 15 15 16 17 17 18 18 19 19 19 20 20 19
13 12 12 12 12 12 12 12 12 11 11 11 11 11 11 11 10 10 9 10 10 10 10 10 10 11 12 12 12 14 15 15 15 16 17 18 18 18 19 18 19 20 20
12 11 11 11 11 11 12 12 11 11 10 10 9 9 10 10 9 8 8 8 8 7 7 8 8 9 9 10 11 11 13 14 15 15 15 16 17 18 19 19 19 20 20
12 11 11 11 11 11 11 11 11 11 10 10 9 8 8 8 8 8 7 7 6 6 6 6 6 6 7 7 8 9 11 12 13 14 15 15 16 16 17 19 19 19 20
11 11 11 11 11 11 11 11 11 10 10 9 9 8 8 7 7 6 6 6 5 5 5 5 4 4 5 5 6 8 9 11 12 13 14 15 16 16 16 18 18 19 18
11 11 10 10 10 11 11 11 10 10 9 9 8 8 7 7 6 6 5 4 4 4 3 3 3 3 3 3 4 6 8 8 9 9 10 12 14 15 16 16 17 18 19
11 10 10 10 10 10 10 10 10 9 8 8 7 7 6 6 5 5 4 3 3 3 2 2 2 2 2 2 3 4 7 8 8 8 8 9 11 12 13 15 16 18 18
10 10 9 9 9 9 10 10 9 8 7 7 6 6 6 5 4 4 3 2 2 2 1 1 1 1 2 2 2 4 7 9 8 7 9 9 9 10 12 13 14 16 17
10 9 8 9 8 9 9 9 7 6 6 6 6 5 5 4 4 3 2 2 1 1 1 1 1 1 1 2 2 3 6 8 8 7 7 9 8 9 10 11 12 12 14
9 8 8 7 7 7 7 7 7 6 5 5 5 4 4 3 3 2 1 1 1 1 0 0 1 1 1 1 2 3 4 5 8 8 6 7 7 7 7 8 10 11 12
8 7 7 7 6 6 6 7 6 6 5 4 4 3 3 2 2 1 0 0 0 0 -0 -0 0 1 1 1 2 2 3 3 3 5 6 5 5 4 5 6 7 8 10
7 7 7 6 6 5 5 5 5 4 3 3 3 3 2 1 1 0 -0 -0 -1 -1 -1 -1 -0 -0 0 1 1 0 0 0 2 3 4 3 3 3 4 4 5 6 7
7 7 6 6 5 5 5 5 4 4 3 3 2 2 1 1 -0 -1 -1 -1 -2 -2 -1 -1 -1 -1 -1 -1 -0 -0 -0 -0 1 -0 1 2 1 2 2 3 4 5 6
7 6 6 5 5 5 4 4 4 3 3 2 1 1 0 -0 -1 -2 -2 -2 -2 -2 -2 -2 -2 -1 -1 -1 -1 -1 -1 -1 -1 -1 -0 -1 -0 1 0 2 3 4 5

GFSSE_925_temp_171.txt.gz
Temp
17 17 17 18 18 19 20 21 21 21 21 21 21 21 20 20 20 20 20 20 20 20 19 20 20 20 20 20 20 19 19 19 20 19 19 19 19 19 19 19 19 19 19
16 17 17 17 18 18 19 20 20 20 20 20 20 20 20 20 20 20 20 20 20 20 20 20 20 20 20 20 20 20 19 19 20 19 19 19 19 19 19 19 19 19 19
16 17 17 17 17 18 19 20 20 19 18 19 19 19 19 20 19 19 19 19 19 19 19 20 20 20 20 20 20 19 19 19 19 19 19 19 19 19 19 19 19 19 19
16 17 17 17 17 17 18 19 19 19 20 19 18 18 18 18 19 19 19 19 19 19 19 19 18 19 19 19 19 19 19 19 19 19 20 19 19 19 20 20 19 19 19
16 16 17 18 17 17 17 18 19 19 19 19 19 19 19 18 18 18 18 18 18 18 18 19 19 19 19 19 19 19 19 18 19 19 19 19 19 19 19 19 19 19 19
15 16 16 17 16 17 17 17 17 17 18 18 18 18 18 18 18 18 18 18 18 18 18 18 18 19 18 18 18 19 19 19 18 19 19 19 19 19 19 19 19 19 19
15 16 17 16 16 16 16 16 16 16 16 17 18 17 17 18 17 17 17 17 18 17 18 18 18 18 18 18 18 18 18 19 19 18 19 20 19 19 19 19 19 19 18
16 16 16 16 16 16 16 16 16 16 16 16 17 17 17 17 17 17 17 17 17 17 17 17 18 18 18 18 18 18 18 18 18 19 19 19 20 20 20 19 19 19 18
15 15 16 16 15 15 15 15 15 15 16 16 16 16 16 16 16 16 16 16 16 16 17 17 17 17 17 17 17 17 18 18 18 18 19 19 19 20 19 19 19 19 19
15 15 15 15 15 15 14 14 14 14 14 15 16 16 16 16 15 15 15 14 15 15 15 16 16 17 17 16 17 17 17 17 18 18 18 19 19 19 19 19 19 19 19
14 14 15 15 14 14 14 13 13 13 14 15 15 15 16 15 15 14 12 13 13 14 14 14 15 15 16 16 17 17 17 17 17 17 17 18 18 18 19 19 18 19 19
13 13 14 14 13 13 13 13 13 13 14 15 15 15 14 14 13 13 13 13 13 13 13 13 14 14 15 15 16 16 16 16 17 17 17 17 17 18 19 19 19 19 19
12 12 12 13 12 13 12 12 12 12 13 13 13 13 14 13 13 12 12 12 12 12 12 12 12 13 12 13 14 14 14 15 15 16 17 16 16 17 17 18 19 19 19
12 12 12 12 12 12 12 12 11 11 11 11 11 11 12 12 11 10 10 10 10 10 10 10 10 10 11 11 12 13 13 14 14 14 15 15 16 16 16 17 18 18 18
11 11 11 11 11 11 11 11 10 10 10 9 9 10 10 9 9 9 8 8 8 8 8 9 9 9 9 10 10 11 11 13 13 13 14 15 15 15 15 16 16 17 18
11 11 11 11 11 11 10 10 10 9 9 9 8 8 8 8 8 8 8 7 6 6 6 6 7 8 8 9 10 10 11 10 11 11 12 13 14 15 15 15 16 16 17
11 10 10 10 10 11 10 9 9 9 9 8 8 8 7 7 7 7 6 6 5 5 5 5 5 6 7 7 9 9 9 9 9 9 9 10 12 13 14 14 15 15 17
10 10 10 10 10 10 10 9 9 8 8 7 7 7 6 6 6 6 5 5 4 4 4 3 3 3 3 4 6 9 9 8 7 8 9 10 10 10 11 12 14 15 15
10 10 10 10 10 10 9 9 8 7 7 6 6 6 5 5 5 5 4 3 3 3 2 2 2 2 1 2 4 7 8 8 7 8 8 9 8 9 10 11 12 13 14
10 9 9 9 9 9 8 8 7 6 6 5 5 4 4 4 4 4 3 2 2 1 1 1 1 1 1 1 3 6 8 7 7 7 7 7 8 8 8 9 10 10 12
9 9 9 9 8 9 8 7 6 5 5 5 4 4 3 3 3 2 2 2 1 0 0 0 0 1 1 1 2 3 7 7 6 7 6 6 6 5 6 6 7 7 10
8 8 8 8 8 8 8 6 6 5 4 3 3 3 2 2 2 1 1 0 -0 -0 -0 -0 0 0 1 1 1 1 2 4 6 6 6 5 4 3 4 4 5 6 7
7 7 7 7 6 6 7 6 5 4 4 3 2 2 1 1 1 0 -0 -0 -1 -1 -1 -1 -1 -0 0 0 1 0 1 2 2 4 4 4 2 2 2 2 3 5 6
7 7 7 6 6 5 6 6 5 4 2 2 1 1 1 0 -0 -0 -1 -1 -1 -1 -1 -1 -1 -1 -1 -0 0 0 0 -0 1 1 3 2 1 -0 0 1 2 3 4
6 6 6 5 5 5 5 4 4 3 2 2 1 0 -0 -1 -1 -1 -2 -2 -2 -2 -2 -2 -2 -2 -2 -1 -2 -1 -1 -1 0 -1 -0 0 -1 -0 -0 -0 2 3 3
5 5 5 5 4 4 4 4 3 2 2 1 0 -0 -1 -2 -2 -2 -3 -3 -3 -2 -2 -2 -2 -2 -2 -2 -3 -3 -3 -1 -2 -2 -2 -2 -1 -0 -1 0 1 1 2

GFSSE_925_temp_174.txt.gz
Temp
17 16 17 18 18 19 19 20 20 20 20 20 20 20 20 20 20 20 19 19 19 20 20 20 20 20 20 20 19 19 19 20 19 19 19 19 19 19 19 19 19 19 19
17 16 17 17 18 18 18 19 19 19 20 20 20 20 20 19 20 20 20 20 20 19 19 19 19 19 19 19 19 19 19 19 19 19 19 19 19 19 19 19 19 19 19
16 16 16 17 17 18 18 18 18 19 18 18 18 19 19 19 19 19 19 19 19 19 19 19 18 19 19 19 19 19 19 19 19 19 19 19 19 19 19 19 19 19 19
16 16 17 17 17 17 17 18 18 19 19 18 18 18 18 19 18 19 18 18 19 19 19 19 19 19 19 19 19 19 18 19 19 19 19 19 19 19 19 19 19 19 19
15 16 17 17 17 17 16 17 17 18 18 18 18 18 18 18 18 18 18 18 18 18 18 18 19 19 18 19 18 18 18 18 19 19 19 19 19 19 19 19 19 19 19
15 16 17 17 17 17 16 16 16 16 17 17 18 17 18 17 17 17 17 17 17 18 18 18 18 18 18 19 18 19 18 18 19 19 19 19 19 19 19 19 19 19 18
16 16 16 16 15 15 16 15 16 15 16 16 17 17 17 17 17 16 16 16 17 17 17 18 18 18 18 18 18 18 18 18 18 19 19 19 19 19 19 19 19 19 19
15 16 16 15 15 15 15 15 15 15 16 16 16 16 16 16 16 16 16 16 16 16 16 17 17 17 17 17 17 18 18 18 18 18 18 19 19 19 19 19 19 19 19
15 16 16 15 15 15 15 15 15 16 16 16 16 16 16 16 16 15 16 16 16 16 16 16 16 16 16 16 17 17 17 18 18 17 18 18 18 19 19 19 19 19 19
14 15 15 14 14 14 14 14 14 14 15 15 15 15 16 16 16 15 15 15 15 15 15 15 16 16 16 15 16 17 17 17 17 17 17 17 18 18 19 19 19 19 19
14 14 14 14 14 14 14 14 14 14 14 14 14 14 14 14 13 13 13 14 15 14 14 15 15 15 16 16 16 16 17 16 16 16 16 17 17 17 17 18 19 18 18
12 12 13 13 13 13 13 12 12 12 13 13 13 13 13 12 12 12 12 12 12 13 13 13 13 14 15 15 16 16 15 15 15 15 15 15 16 16 16 17 18 18 19
12 12 12 13 13 12 12 11 11 11 12 12 12 12 12 12 12 12 12 12 12 12 12 12 13 12 12 13 14 14 14 14 14 14 15 14 15 15 16 17 17 17 18
11 11 11 11 12 11 11 11 11 11 12 11 11 11 11 11 11 10 10 11 11 11 12 12 12 12 11 11 11 11 12 12 12 13 14 14 14 15 15 15 16 17 17
11 11 11 11 11 10 11 10 10 10 10 10 10 10 10 10 10 10 10 9 9 9 10 11 12 11 12 12 11 11 10 10 10 11 12 13 13 13 14 15 14 15 16
11 10 10 11 10 10 10 10 9 9 9 9 8 7 8 8 8 7 7 7 8 8 8 8 9 10 10 11 12 11 10 9 8 9 9 10 11 11 12 12 13 14 15
10 10 10 10 10 10 10 9 9 8 7 7 6 6 6 6 6 6 6 5 5 6 7 8 8 8 9 9 10 10 9 8 8 8 8 8 9 10 10 11 12 12 12
10 10 10 10 10 10 9 8 8 7 7 7 6 6 6 6 5 5 5 4 4 4 4 5 5 7 7 8 8 8 7 7 7 8 8 7 8 8 9 10 11 11 12
10 10 10 10 10 9 8 8 7 7 7 6 6 5 5 5 4 4 4 3 4 4 3 3 3 3 4 6 8 8 7 6 6 7 7 7 7 7 7 8 9 10 11
9 10 9 9 8 8 8 7 7 6 6 5 5 4 4 3 3 3 2 2 2 2 2 2 2 2 1 2 6 7 6 6 6 5 5 6 6 6 6 6 7 8 9
9 9 9 9 8 8 7 7 6 5 4 4 3 3 3 2 2 2 2 2 2 1 1 0 1 1 1 1 3 5 6 5 5 4 4 4 4 4 4 5 5 5 6
8 8 8 8 8 7 7 6 5 4 3 3 3 2 2 2 1 1 0 0 0 0 0 -0 -0 -0 0 1 -0 1 2 4 4 4 4 3 3 3 3 2 4 4 4
7 7 7 7 7 7 7 6 5 4 3 2 2 1 1 1 0 0 -0 -0 -1 -1 -1 -1 -1 -1 -1 -0 -0 -0 1 2 1 3 3 2 2 0 1 1 2 2 2
7 6 6 6 6 6 5 5 5 4 2 1 1 1 0 -0 -1 -1 -1 -1 -1 -1 -2 -2 -2 -2 -2 -1 -0 -1 -0 -0 0 1 2 1 -1 -0 -0 1 1 1 0
6 6 6 5 5 5 5 5 4 3 2 1 1 0 -1 -1 -1 -1 -2 -2 -2 -2 -2 -2 -2 -2 -3 -3 -3 -3 -2 -0 -2 -1 0 -1 -1 -1 -0 0 1 -0 -1
5 5 5 5 4 4 4 4 4 3 1 1 -0 -0 -1 -1 -2 -2 -2 -2 -2 -3 -3 -3 -3 -3 -3 -4 -4 -3 -3 -3 -3 -3 -2 -2 -1 -1 -1 1 -0 -1 -2